ECMWFFLT1_850_thetae_000.txt.gz
Theta_e
311 311 311 310 309 308 308 308 308 308 308 308 308 307 306 305 305 304 303 303 304 306 307 307 308 310 310 311 312 313 315 315 316 319 320 322 324 326 327 328 329 329 329 329 329 328 328 329 329 329 329 329 329 330 329 329 328 328 328 328 328 327 326
312 311 311 311 310 309 308 308 309 309 309 309 308 308 307 306 305 304 303 303 303 303 304 305 307 309 311 312 314 315 316 316 315 316 318 320 321 322 323 324 325 325 326 327 328 328 328 329 329 329 329 329 330 330 330 330 329 329 329 328 328 328 327
312 312 311 311 311 310 309 308 308 308 308 308 308 308 308 307 306 306 305 305 304 304 304 304 305 306 307 310 314 317 318 319 319 318 318 318 319 321 321 322 321 320 320 321 323 325 327 328 329 328 328 329 330 330 330 330 330 329 329 329 328 328 328
312 312 311 312 312 310 310 308 308 308 308 308 308 308 307 307 306 306 306 306 306 305 305 305 305 304 305 305 308 310 312 315 317 319 319 319 318 320 322 322 322 321 320 320 321 323 326 327 329 329 328 328 329 329 328 329 329 329 330 329 328 329 328
312 312 312 312 312 311 310 309 308 308 308 308 307 308 307 307 306 306 306 306 306 306 305 305 305 305 305 304 304 304 305 306 308 312 316 319 319 318 319 321 322 322 323 323 323 324 326 326 327 329 329 328 328 328 328 328 328 329 329 330 329 329 329
313 313 313 313 312 311 310 309 308 308 308 307 307 307 307 307 306 306 306 306 306 306 305 305 305 304 303 303 303 303 303 303 303 304 307 312 316 317 318 318 319 320 321 322 323 324 325 326 327 328 328 327 327 328 328 327 326 325 326 328 329 329 330
313 313 313 313 313 311 310 310 309 308 308 307 307 307 307 306 306 306 306 306 305 305 305 305 305 305 304 303 302 302 302 301 301 302 302 304 308 313 316 318 318 318 318 319 321 323 324 325 327 328 327 327 327 327 327 326 325 325 324 324 325 326 328
313 313 313 313 313 312 310 310 309 308 308 307 307 307 307 306 306 306 306 305 305 305 305 306 305 305 305 304 303 302 301 301 300 300 300 301 303 306 310 314 316 318 318 318 319 321 322 324 325 326 327 328 328 327 326 326 325 325 324 322 322 323 325
313 313 313 313 313 312 311 310 309 308 308 307 306 306 306 306 306 306 306 305 305 305 305 305 306 306 306 305 305 303 302 301 301 300 299 300 300 302 305 308 311 313 315 316 317 318 320 321 322 323 325 327 328 328 327 326 326 325 323 322 323 323 325
313 313 312 313 313 312 311 310 309 308 308 307 306 306 306 306 306 306 305 305 304 305 305 305 305 305 305 305 305 304 303 302 302 302 301 301 300 301 303 304 307 308 310 313 315 316 317 318 318 319 320 322 324 327 328 326 325 323 321 322 324 325 326
313 313 312 312 313 312 311 310 309 309 309 307 306 305 306 306 306 305 305 304 304 304 304 304 304 304 305 304 304 304 304 303 302 302 303 303 302 302 302 303 305 306 308 310 311 313 315 316 316 317 317 318 319 321 324 326 326 324 322 323 323 325 326
314 312 311 311 311 311 310 310 309 309 309 307 305 305 305 306 305 305 304 304 304 304 304 304 303 303 303 303 304 303 303 303 303 302 302 303 304 304 303 303 303 305 306 309 310 311 314 315 315 316 317 318 318 317 318 322 325 323 322 323 323 323 325
314 311 311 310 310 310 310 309 309 309 309 307 306 305 305 305 305 304 304 304 304 304 303 303 303 303 303 303 303 303 303 303 303 302 302 302 303 305 305 305 304 304 305 307 309 311 313 314 315 315 316 318 320 320 318 318 321 321 318 320 321 321 322
314 311 310 310 310 310 309 309 309 309 309 307 305 305 305 305 304 303 303 304 304 303 303 302 302 302 302 302 302 302 302 302 303 303 302 302 302 303 305 306 306 305 305 305 306 308 311 313 314 314 315 318 319 320 321 321 320 317 313 313 317 319 321
313 311 310 310 309 309 309 309 309 308 308 306 305 305 305 304 303 303 303 303 303 303 302 302 302 302 302 302 302 302 302 302 302 302 302 302 302 302 302 303 304 306 307 306 305 306 308 312 314 314 314 318 319 319 321 323 323 320 315 313 315 316 318
313 311 310 310 310 309 309 309 308 308 306 305 305 305 304 303 302 302 303 303 302 302 302 301 301 301 301 302 302 302 302 302 302 302 302 302 302 303 303 302 302 305 308 309 307 306 306 308 313 316 316 317 319 320 320 321 323 324 322 319 318 317 317
314 311 310 310 310 309 309 308 308 307 306 305 305 304 303 302 302 302 303 303 302 302 302 301 301 301 301 301 301 302 302 302 301 301 302 302 303 303 303 303 303 305 306 308 309 309 308 306 309 314 316 317 318 319 319 319 319 321 322 322 322 321 320
314 311 310 311 310 309 308 308 307 307 306 305 305 303 303 302 303 303 303 303 303 303 302 302 301 301 300 301 301 301 302 302 301 301 301 301 302 302 302 302 303 304 305 306 308 309 310 308 308 309 312 316 319 319 319 319 318 319 320 321 323 324 323
313 311 310 310 309 309 308 307 307 307 306 305 304 303 303 303 303 304 304 304 303 303 302 301 301 300 300 300 301 301 301 301 301 301 301 301 301 301 301 301 302 303 303 303 305 307 309 309 309 308 308 312 317 319 318 318 318 319 319 319 320 322 323
313 311 311 310 309 308 308 307 307 307 305 304 303 303 303 303 304 304 304 304 303 302 302 301 300 300 299 300 300 300 301 300 300 300 300 301 301 301 301 301 301 301 301 301 302 304 305 306 308 308 308 309 312 316 318 318 318 318 319 319 319 321 322
313 311 311 310 309 309 308 307 307 306 305 304 303 303 303 304 304 304 303 303 302 301 301 300 300 299 299 298 298 299 299 299 299 299 300 300 300 300 301 301 301 301 301 301 301 302 303 303 304 306 307 308 308 311 315 317 318 318 318 319 319 320 321
313 312 311 310 310 309 308 307 306 305 304 304 303 303 303 304 304 303 302 301 301 301 300 300 300 299 299 298 297 297 297 298 299 299 299 298 298 299 299 299 300 300 300 301 301 301 301 301 302 304 305 307 307 308 311 313 315 317 317 318 318 319 319
314 313 312 311 310 309 308 307 306 304 304 303 303 303 303 303 303 302 301 301 301 301 301 300 300 299 299 298 296 296 296 298 298 298 298 298 298 297 297 297 298 298 299 300 300 300 300 300 300 301 302 304 305 306 308 309 311 314 315 315 316 317 318
314 314 312 311 311 310 308 306 304 303 303 303 303 304 303 302 302 301 301 301 301 301 300 300 299 299 299 298 297 296 297 298 298 298 298 298 297 297 297 297 297 297 297 298 298 299 299 299 300 300 301 301 302 303 305 307 308 310 311 312 313 314 316
314 314 312 311 311 310 307 305 303 304 304 304 304 304 302 302 301 301 301 301 301 300 300 299 299 299 298 298 297 297 297 298 298 298 297 297 297 297 297 297 297 297 296 296 297 297 297 298 299 300 300 301 301 301 303 305 306 307 308 309 310 311 312
314 313 312 312 311 308 305 304 304 305 306 305 305 303 302 302 302 301 301 300 300 299 298 298 298 297 297 296 296 297 297 298 298 297 297 297 296 296 296 296 296 296 296 296 296 296 296 297 297 298 299 300 301 301 301 302 304 306 306 307 308 309 310
314 313 313 312 309 307 305 305 306 306 306 305 304 304 303 302 302 301 300 299 298 297 296 296 296 295 295 295 296 296 297 297 297 297 297 296 296 296 296 295 295 295 295 295 295 295 296 296 296 297 298 299 300 301 301 301 302 303 305 306 307 307 308
313 312 313 311 308 306 306 306 306 306 306 305 305 304 303 302 301 300 298 297 295 295 295 295 295 295 295 296 296 296 296 296 296 296 296 296 295 295 295 295 295 295 295 295 294 294 295 295 295 296 296 297 298 299 300 301 301 302 303 305 307 308 308
312 312 311 309 307 306 306 306 307 306 306 306 305 303 302 301 299 297 295 294 294 294 295 296 296 296 296 296 296 296 296 295 295 295 295 295 295 295 295 295 295 294 294 294 294 294 294 294 294 295 296 296 297 298 299 300 300 301 302 303 305 308 308
312 311 310 307 306 306 307 307 307 306 306 305 303 302 300 298 296 294 293 293 293 293 294 295 295 296 296 296 296 295 295 294 294 294 294 294 294 294 294 294 294 294 294 294 293 293 293 293 294 294 295 296 296 297 298 299 299 299 300 301 303 305 307
311 310 308 306 306 306 307 307 306 306 305 303 301 299 297 296 295 294 294 294 293 292 292 293 294 294 295 295 295 294 294 294 293 293 293 293 294 294 294 294 294 294 294 293 293 293 293 293 293 293 294 295 296 296 297 298 298 298 299 300 301 303 305
310 308 306 305 306 306 306 306 305 304 302 299 298 297 297 297 296 296 295 295 294 293 292 292 293 294 294 294 294 294 293 293 293 293 293 293 293 293 293 293 293 293 293 293 293 293 293 292 292 293 293 294 295 296 296 297 297 298 299 299 300 301 303
308 306 305 305 306 306 305 303 301 300 299 298 298 298 298 298 297 296 296 295 294 293 292 291 292 293 294 294 293 293 293 293 293 292 292 292 292 292 292 292 292 292 292 293 293 293 293 292 292 292 293 293 294 295 295 296 297 298 298 299 299 300 302
306 305 305 305 304 303 301 299 298 298 298 298 298 298 298 298 297 296 295 295 294 293 291 291 292 293 293 293 293 293 293 293 293 292 292 292 291 291 291 291 291 291 292 292 292 292 292 292 292 292 293 293 294 294 294 295 296 297 298 298 299 299 300
305 304 304 302 301 300 298 298 298 298 298 298 298 298 298 297 297 296 295 294 294 292 291 291 291 292 293 293 293 292 292 292 292 292 291 291 291 291 291 291 291 292 292 292 292 292 292 293 293 293 293 293 293 294 294 295 296 296 297 297 297 298 299
303 301 301 299 299 299 298 298 298 298 298 298 298 298 298 297 296 295 294 293 293 292 292 292 291 291 292 293 293 293 292 292 292 292 291 290 290 291 291 292 292 292 292 292 292 293 293 293 293 293 293 293 293 294 294 295 296 296 296 296 297 297 298
300 300 299 299 299 299 298 298 298 298 298 298 298 297 297 296 295 294 293 293 293 293 293 292 291 291 292 293 293 293 292 292 292 291 290 290 290 291 291 292 292 292 292 292 293 293 293 293 293 293 293 293 293 293 294 295 296 296 296 297 297 297 298

ECMWFFLT1_850_thetae_003.txt.gz
Theta_e
310 310 310 310 309 308 308 308 308 308 308 307 306 305 305 304 303 303 304 305 305 305 306 306 307 307 308 309 310 311 312 314 316 318 320 322 323 324 326 327 327 329 330 330 330 329 329 329 329 329 328 328 328 328 328 328 328 328 328 328 328 328 328
310 310 310 310 310 309 308 308 308 308 308 308 307 306 305 304 303 303 303 303 303 304 304 304 305 305 306 308 309 310 311 312 312 313 314 316 318 320 322 323 324 326 327 328 328 328 328 329 329 328 328 327 327 327 328 328 328 328 329 329 329 328 329
310 310 310 310 311 310 309 308 308 308 308 308 307 307 306 305 305 305 305 304 304 304 304 304 304 304 304 305 306 307 309 311 312 313 313 313 313 315 317 319 321 322 323 323 323 323 325 326 327 327 327 327 326 326 327 327 328 329 329 329 329 329 329
310 310 310 310 311 311 310 309 308 308 308 308 308 307 306 306 306 306 306 306 305 305 305 305 304 304 304 304 304 305 306 307 308 311 313 314 313 313 313 315 317 320 321 322 322 322 322 323 324 325 325 325 325 325 326 327 328 329 329 329 329 329 329
310 310 310 311 311 311 311 310 309 308 308 308 308 307 307 306 306 306 306 306 306 305 305 305 305 304 304 304 303 303 304 304 305 305 307 309 310 311 312 312 314 317 321 322 322 323 323 323 323 324 323 323 324 324 324 325 326 328 329 329 329 329 329
311 310 310 311 311 311 311 310 309 309 308 308 308 307 307 306 306 306 306 306 305 305 305 305 305 304 304 304 304 303 303 302 303 303 303 304 304 307 309 311 311 313 317 319 321 322 322 323 323 323 323 324 325 325 325 324 325 326 328 328 328 328 328
311 311 310 311 312 312 312 311 310 309 309 308 307 307 307 306 306 306 306 305 305 305 305 305 305 305 305 305 305 304 303 302 302 302 302 302 302 303 304 306 308 310 312 315 317 318 319 320 321 322 323 323 324 325 325 325 324 324 326 326 327 327 327
312 312 311 311 312 312 312 312 310 310 309 308 308 307 307 307 306 306 305 305 305 305 305 305 305 305 305 305 305 305 304 303 302 301 301 301 301 301 301 302 304 307 309 312 313 314 316 317 319 320 321 322 323 323 323 324 325 325 325 325 325 324 324
313 313 312 311 312 312 312 312 311 310 309 309 308 307 307 306 306 306 306 305 305 304 305 305 305 305 305 305 304 304 304 304 303 302 301 301 301 300 300 300 300 303 305 308 310 311 313 314 316 317 319 320 322 322 322 322 322 323 324 325 324 323 321
314 313 312 311 312 311 312 312 311 310 310 309 308 308 307 306 306 306 306 305 304 304 304 305 305 305 305 305 304 304 304 304 303 303 302 302 301 301 301 300 300 300 302 304 306 309 310 312 313 314 316 317 319 321 322 322 320 319 320 321 321 321 320
314 313 312 311 312 312 312 312 311 310 310 309 309 308 307 306 306 306 306 305 304 304 304 304 304 304 304 304 304 303 303 303 303 303 302 302 302 302 302 302 301 301 301 302 303 305 307 310 312 313 314 315 316 318 320 322 322 319 318 318 317 318 317
315 314 314 312 312 311 311 311 311 311 310 309 309 308 307 306 306 306 305 304 304 303 304 304 304 304 304 303 304 303 303 303 303 303 303 303 302 302 302 303 303 303 303 302 302 303 304 307 310 312 314 315 316 317 318 319 320 318 317 318 317 316 316
316 316 315 313 312 311 311 312 312 311 310 309 309 309 307 306 305 305 305 304 303 303 303 303 304 303 303 303 303 303 303 303 303 303 303 303 303 303 302 302 303 303 304 304 304 304 303 304 306 309 312 315 316 317 317 318 318 317 314 316 317 317 319
317 317 317 314 312 311 311 311 312 311 310 309 309 309 308 306 305 305 305 304 303 303 303 303 303 303 303 303 302 302 302 302 302 302 303 303 303 303 303 303 302 302 303 304 305 305 305 305 305 305 307 310 313 315 317 317 317 317 315 314 316 318 320
317 318 318 315 313 312 311 311 311 311 310 309 309 310 308 305 305 305 304 303 303 303 302 302 302 302 302 302 301 301 301 301 301 301 302 302 302 302 303 303 303 302 302 303 304 304 305 306 306 306 305 306 308 311 315 316 316 317 316 314 314 317 320
317 318 318 317 315 313 311 311 311 311 310 309 310 310 307 305 305 305 304 303 302 302 302 303 303 302 302 301 301 300 300 300 300 301 301 301 302 302 302 302 302 302 302 302 302 302 303 304 306 307 307 306 306 306 310 313 314 315 316 315 314 316 318
317 318 319 318 316 314 312 311 311 311 310 310 311 309 306 304 304 304 303 303 302 303 303 303 303 303 303 301 300 300 300 300 300 300 300 301 301 300 300 301 301 302 302 302 302 303 303 304 306 307 308 308 307 305 306 310 312 314 315 316 315 316 317
319 319 319 318 317 315 313 312 312 311 310 311 311 308 305 304 304 304 303 302 303 303 304 304 304 304 303 301 300 299 299 299 299 299 299 300 300 300 299 299 300 301 302 302 302 303 303 304 305 307 307 308 309 308 306 307 309 311 313 315 316 316 317
320 320 319 319 318 316 313 312 312 311 311 311 309 306 305 305 304 303 302 303 303 304 305 305 304 303 302 300 300 299 299 298 298 297 297 298 299 299 299 299 300 300 301 301 302 303 303 303 303 304 306 306 307 308 308 307 307 308 311 313 315 316 316
318 320 320 319 318 316 313 312 312 311 311 309 307 306 305 304 303 303 303 303 304 305 305 304 303 301 300 300 299 299 298 298 297 297 296 296 297 298 298 299 299 299 299 300 300 301 302 302 302 302 303 304 305 305 306 307 307 306 307 310 313 315 316
317 318 319 320 319 315 312 312 312 311 309 308 306 306 305 304 303 303 303 304 304 305 304 302 301 300 300 300 299 299 298 298 298 297 296 295 296 297 298 299 299 298 298 298 298 299 300 300 301 301 301 302 302 303 303 304 305 306 306 307 309 312 314
318 316 318 320 318 314 312 312 311 310 308 307 306 305 304 304 303 303 304 304 304 303 302 301 300 300 300 300 299 299 298 298 298 297 296 295 296 297 298 298 298 298 298 298 298 298 298 299 299 300 301 301 301 301 301 302 303 303 304 305 306 308 311
319 317 319 320 317 313 311 311 310 309 308 306 305 304 303 303 303 303 303 303 303 302 301 300 300 300 300 299 299 298 298 297 297 296 296 295 296 297 298 298 298 298 298 298 298 298 298 298 298 298 299 300 300 300 300 301 301 301 302 303 305 306 308
318 318 320 319 315 312 311 310 309 308 306 305 304 303 303 303 303 303 302 302 301 301 300 300 300 300 299 298 298 297 296 296 296 295 295 295 295 297 298 298 298 299 299 299 298 298 298 298 298 298 298 298 298 298 299 300 300 301 301 301 303 304 305
317 318 319 316 313 312 310 309 308 306 304 303 303 303 303 303 303 303 302 302 301 301 301 300 299 298 297 296 295 295 295 295 295 295 295 295 296 297 298 298 299 299 299 299 299 298 298 298 298 298 298 298 298 297 297 298 299 300 300 301 302 303 304
318 318 316 312 312 311 310 310 308 304 303 303 303 304 304 304 304 303 302 302 301 301 299 298 296 295 295 295 295 296 296 296 296 296 296 297 298 298 299 299 299 299 299 299 298 298 297 298 298 298 299 299 299 298 298 297 297 298 299 300 301 302 303
319 317 314 312 312 311 310 309 306 304 304 304 305 305 305 304 304 303 302 301 300 298 296 294 294 294 294 294 294 295 295 296 296 296 297 297 297 298 298 298 299 298 298 298 297 297 296 296 297 297 298 298 299 299 299 298 297 297 298 299 300 301 302
318 316 314 312 311 311 310 308 305 304 305 306 306 306 305 305 304 303 301 299 297 295 293 293 293 293 293 293 293 294 294 295 295 296 296 296 297 297 297 297 298 298 298 297 296 296 295 295 295 296 296 297 298 299 299 299 298 297 297 298 298 300 301
317 315 313 311 311 311 309 305 304 305 306 306 306 306 305 305 303 301 298 296 295 294 294 293 293 292 292 293 293 293 294 294 295 295 296 296 296 296 296 296 296 296 296 296 296 295 294 294 294 294 295 295 296 297 298 298 298 297 297 297 298 298 299
316 314 312 312 312 310 306 304 305 306 306 306 306 306 304 302 300 298 296 296 296 295 295 293 292 292 292 293 293 293 293 293 294 295 295 296 296 296 296 295 295 295 295 295 295 295 294 294 294 294 294 294 294 295 296 296 297 297 297 297 297 298 298
315 313 312 312 310 307 304 305 306 306 307 307 306 303 300 298 297 297 297 297 297 296 295 293 292 292 292 293 293 292 292 292 293 294 295 295 295 295 295 295 294 294 294 294 294 294 294 293 293 293 293 293 293 294 294 294 295 296 295 295 296 297 297
314 313 312 311 308 305 304 305 306 306 306 305 302 299 298 297 298 298 297 297 297 296 294 293 292 293 293 293 293 292 291 292 293 294 294 294 295 295 295 294 294 294 294 294 294 294 293 293 293 293 293 292 292 293 293 293 293 294 294 294 294 295 296
313 312 311 308 306 304 305 306 307 305 303 301 299 298 298 298 298 298 298 298 297 295 293 292 293 293 293 293 293 292 291 292 293 293 294 294 294 294 294 294 294 294 294 293 293 293 293 293 292 292 292 291 292 292 292 292 293 293 293 293 293 294 295
312 311 308 305 304 305 307 306 304 300 299 298 298 298 298 298 298 298 298 297 295 293 293 293 293 293 293 293 292 291 291 292 292 293 293 293 293 293 293 293 293 293 293 293 292 292 292 292 291 291 291 291 291 292 292 292 292 293 293 293 293 293 294
310 308 306 304 305 305 304 301 299 298 297 298 298 298 298 298 298 297 297 296 294 293 293 293 293 293 293 293 292 291 291 292 292 292 292 292 291 292 292 292 292 292 292 291 291 291 291 291 291 291 291 292 292 292 292 292 292 292 292 293 293 293 294
308 305 305 305 304 302 300 298 298 298 297 298 298 298 298 297 297 296 296 295 293 293 293 293 293 293 293 292 291 291 291 292 292 291 291 291 291 291 291 291 291 291 291 291 290 290 291 291 291 292 292 292 292 292 292 292 292 292 292 293 293 293 294
305 304 304 304 302 299 298 298 298 298 298 298 298 297 297 296 296 295 294 293 292 292 292 293 293 292 292 291 290 291 291 291 291 291 291 290 291 291 291 291 291 291 291 291 291 291 291 291 291 292 293 293 293 292 292 292 292 292 292 292 293 293 293

ECMWFFLT1_850_thetae_006.txt.gz
Theta_e
308 309 309 309 309 308 308 308 307 307 306 305 304 303 303 303 303 304 305 306 307 308 309 309 310 310 309 309 309 310 311 313 315 317 319 320 322 323 325 326 327 327 327 327 328 328 328 328 328 327 328 328 328 328 328 328 328 328 328 328 328 328 328
309 309 309 309 309 309 308 308 308 307 307 306 305 304 303 303 303 303 304 304 305 306 306 306 306 307 308 308 308 309 310 311 311 313 314 316 317 318 320 321 322 323 324 325 325 327 327 327 327 327 327 327 328 328 328 327 327 327 327 327 328 328 328
309 309 309 310 310 309 309 308 308 308 307 307 306 305 305 304 304 304 304 304 304 304 304 304 304 305 305 305 306 307 308 310 311 312 313 314 315 315 315 315 317 318 320 321 322 323 324 324 324 325 325 324 325 326 327 326 326 326 326 327 327 327 328
310 309 309 310 310 310 309 309 308 308 308 307 306 306 306 305 305 306 305 305 305 305 305 304 304 304 304 303 304 304 304 305 307 309 310 312 313 313 313 312 313 314 316 318 320 321 322 322 322 322 322 321 321 321 321 322 322 323 324 325 326 327 327
310 309 309 310 310 310 310 309 309 308 308 308 307 306 306 306 306 306 306 306 305 305 305 305 304 304 304 304 304 303 303 303 303 304 305 306 307 308 309 309 310 312 314 316 318 320 321 322 322 322 322 321 321 318 316 317 316 317 320 322 324 325 326
310 310 310 310 310 310 310 310 309 309 308 308 307 307 306 306 306 306 306 305 305 305 305 305 305 305 305 305 305 305 304 304 303 302 302 302 303 303 304 306 307 309 312 314 316 318 319 320 321 321 321 322 322 320 319 318 319 318 319 320 322 323 324
311 310 310 309 310 310 310 310 310 309 308 308 307 307 307 306 306 305 305 305 305 304 305 305 305 305 305 305 305 305 304 304 304 303 302 301 301 302 302 302 303 304 307 309 312 314 316 317 318 318 319 320 320 321 321 321 321 321 321 321 322 322 323
311 311 311 310 310 310 310 310 311 310 310 309 308 307 307 306 306 306 305 305 305 304 305 305 305 305 304 304 304 304 304 304 304 303 303 302 302 301 301 301 301 301 302 303 306 308 310 312 313 315 316 317 318 318 318 319 320 321 321 321 321 322 323
311 311 311 311 310 310 310 310 311 311 310 309 308 308 307 306 306 306 305 305 305 304 304 304 305 304 304 304 304 304 303 303 303 303 302 302 302 302 302 301 301 300 300 300 301 303 305 307 309 311 312 314 315 316 315 315 315 317 318 318 319 320 321
312 312 313 312 311 310 310 310 311 312 311 310 309 309 308 307 307 306 306 305 305 304 304 304 304 304 304 304 304 303 303 303 303 302 302 302 302 302 302 302 302 302 301 300 300 300 301 303 305 307 309 312 313 314 314 314 312 310 311 312 314 316 316
313 313 313 313 312 311 310 310 310 311 311 311 310 309 308 308 307 306 306 305 305 304 304 303 304 304 304 304 304 303 303 303 303 302 302 302 302 302 302 302 302 302 302 302 302 301 301 301 302 305 307 310 312 313 314 314 312 307 307 309 310 310 310
314 314 314 314 314 312 310 310 310 311 312 311 310 309 308 308 307 306 306 306 305 305 304 303 303 303 303 304 304 303 303 303 303 303 302 302 302 302 302 302 302 302 302 302 302 303 302 302 302 303 304 306 309 312 313 314 313 308 306 309 309 308 309
316 315 316 316 315 313 311 310 310 311 312 312 311 310 309 308 308 307 306 306 305 305 304 303 303 303 303 304 303 303 303 302 303 302 302 302 302 302 302 302 302 302 302 301 301 302 302 303 304 304 304 304 305 309 311 313 314 310 305 307 308 307 309
317 317 317 317 317 316 313 311 311 312 312 312 311 310 309 308 308 307 306 305 305 305 304 303 303 303 303 304 303 303 303 303 302 302 301 301 301 302 301 301 301 301 301 301 301 301 302 302 303 303 304 305 305 306 307 308 310 309 304 304 306 305 307
318 318 318 318 318 318 315 313 312 312 312 312 312 311 309 309 309 307 306 305 305 305 304 303 302 303 303 304 304 303 303 303 303 302 301 301 301 301 301 301 301 301 301 301 301 301 301 301 302 302 303 304 304 305 306 306 307 307 305 303 304 303 304
319 319 319 319 319 319 317 315 313 312 313 313 312 311 310 309 309 308 306 305 305 305 304 303 302 302 303 304 304 303 303 303 303 303 302 302 301 301 300 300 300 300 300 300 300 301 301 301 301 301 302 302 303 304 305 306 306 306 306 306 304 304 304
319 319 319 319 319 319 319 316 314 314 313 313 313 312 310 309 309 309 306 305 305 305 304 302 302 302 303 304 304 303 303 303 303 302 301 301 300 300 300 300 299 298 298 298 299 299 300 301 301 301 301 302 302 303 304 305 306 306 306 307 306 305 304
317 318 319 319 319 319 319 318 316 314 313 313 313 311 310 310 310 309 307 305 304 304 303 302 302 302 303 303 303 303 303 303 302 301 299 299 299 299 299 298 298 297 297 297 298 298 299 300 300 301 301 301 302 302 303 303 304 305 305 307 308 307 306
317 318 318 319 319 319 319 318 317 315 314 313 312 311 310 310 310 309 306 305 304 304 303 302 302 303 303 303 303 303 302 301 300 299 299 298 298 298 298 297 297 297 296 296 297 298 298 299 299 300 300 301 301 301 302 302 302 303 303 305 307 309 308
321 320 319 319 319 319 319 319 318 316 314 312 311 310 310 310 310 308 306 305 304 303 302 302 302 303 303 303 302 302 301 300 299 299 299 298 298 297 296 296 296 296 295 296 296 297 298 298 299 299 299 300 300 300 300 300 300 300 301 302 305 307 309
321 321 320 320 319 318 318 318 318 317 315 312 311 310 310 310 309 307 305 304 304 303 303 303 303 303 303 302 301 300 300 299 299 298 297 297 296 296 295 295 295 295 294 295 295 296 297 298 298 298 299 299 299 300 299 300 300 300 299 300 302 304 307
321 321 320 320 319 318 317 318 318 317 315 312 310 310 310 310 308 306 305 304 303 303 303 303 303 302 301 300 300 300 299 298 297 296 296 296 295 296 295 295 295 295 295 295 296 297 297 298 298 299 299 299 299 299 299 299 299 299 299 299 299 301 304
321 321 320 320 319 318 316 317 317 316 314 312 311 311 310 308 307 305 305 304 303 303 303 303 302 301 301 300 299 298 296 295 295 295 295 296 296 296 297 297 297 297 297 297 298 298 299 299 299 299 299 299 299 299 299 298 298 298 298 298 298 299 300
320 321 320 320 320 318 317 317 316 315 313 311 311 310 308 307 306 305 304 303 303 303 303 302 302 301 300 298 296 295 294 294 294 295 295 295 296 296 297 297 298 298 298 299 299 299 299 299 300 300 300 300 300 299 299 298 298 298 297 297 297 298 298
319 320 320 320 320 318 317 316 315 313 312 311 310 309 307 306 305 304 303 303 303 303 302 301 301 299 297 295 294 293 293 294 294 294 294 294 295 295 296 296 297 297 298 298 298 298 299 299 299 299 299 299 299 299 299 298 298 298 297 297 297 298 297
318 319 320 320 320 318 317 316 314 313 312 310 309 308 307 305 303 303 303 303 303 302 301 300 298 295 294 293 293 293 293 293 293 293 293 294 294 294 295 296 296 296 297 297 297 298 298 298 299 299 299 299 299 299 299 298 298 297 297 297 296 297 298
317 318 319 319 319 318 316 315 313 312 311 309 308 307 305 303 303 303 303 303 303 302 299 297 295 294 293 293 293 292 292 293 293 293 293 293 293 294 294 295 295 296 296 297 297 297 297 298 298 298 298 298 298 298 298 298 297 297 297 297 296 297 297
317 318 318 318 318 317 315 313 312 311 309 308 306 305 303 303 303 304 304 303 302 300 297 295 294 294 293 292 292 292 292 293 293 293 293 293 293 294 294 295 295 295 296 296 297 297 297 297 297 297 297 297 297 297 297 297 296 296 296 296 296 296 296
316 317 318 318 317 316 314 312 311 310 308 306 304 303 303 304 304 305 305 303 300 297 295 295 294 293 292 292 292 292 293 293 293 292 292 292 293 293 294 294 295 295 296 296 296 296 296 296 296 296 296 296 296 296 296 296 295 295 295 295 295 296 296
316 317 317 317 317 315 314 312 311 309 306 304 303 303 305 305 306 306 304 301 297 295 295 295 294 293 292 292 293 293 293 293 292 292 292 292 293 293 294 294 295 295 295 295 295 295 295 295 295 295 295 295 295 295 295 295 294 294 294 294 294 295 295
316 316 316 317 316 314 313 311 310 307 305 304 305 305 306 306 305 304 301 298 296 296 296 296 294 292 292 293 293 293 293 292 292 291 291 292 293 293 294 294 294 294 294 294 294 294 294 294 294 294 293 293 294 294 294 294 293 293 293 293 293 294 294
314 315 316 316 314 312 312 310 308 306 305 305 305 305 305 303 302 300 298 297 297 296 297 296 295 293 293 293 293 293 293 292 292 291 291 292 292 293 293 294 294 294 293 293 293 293 293 293 293 293 293 292 292 293 293 293 293 292 292 292 292 293 294
314 314 315 315 313 312 310 307 305 304 304 304 305 304 302 300 299 298 297 297 297 297 297 296 294 293 293 293 293 293 292 292 291 290 291 291 292 292 293 293 293 293 292 292 292 292 292 292 292 292 291 290 291 292 292 292 292 291 291 291 292 292 293
313 314 314 314 312 310 307 304 304 303 303 303 303 302 300 299 298 298 297 297 297 297 296 295 294 293 293 293 293 292 291 290 290 290 291 291 291 292 292 292 292 292 292 292 292 292 292 292 291 291 290 289 290 291 291 291 290 290 290 290 291 291 291
313 313 313 312 311 308 305 305 305 304 302 302 301 300 299 298 298 297 297 297 297 296 295 294 293 293 292 292 292 291 290 290 290 291 291 291 292 292 292 292 292 292 291 291 292 292 292 291 291 290 290 290 290 291 290 289 289 289 289 289 290 290 291
312 312 311 309 308 307 305 305 305 302 300 299 299 298 297 297 297 297 297 296 296 295 294 293 293 292 292 292 291 291 290 290 290 290 291 291 292 292 292 292 291 291 291 291 291 291 291 291 290 290 290 290 291 291 290 289 289 289 289 289 289 290 290
312 311 308 305 305 305 304 303 301 298 297 297 298 298 298 298 297 296 295 295 293 293 292 292 292 292 291 291 290 290 290 290 290 291 292 292 292 292 292 291 291 291 291 291 291 291 291 291 291 291 291 291 291 291 291 291 290 290 290 290 290 290 291

ECMWFFLT1_850_thetae_009.txt.gz
Theta_e
308 309 309 308 308 308 308 308 307 306 305 304 303 303 303 303 304 304 305 306 306 306 307 307 306 306 307 307 308 309 311 314 316 318 320 322 323 324 324 325 326 327 327 327 327 328 328 328 328 328 328 328 328 328 328 328 328 329 328 328 328 327 327
309 309 309 309 309 308 308 308 307 306 306 305 304 303 303 303 303 304 304 304 305 304 304 305 305 304 305 305 305 306 306 308 309 311 313 316 317 319 320 321 322 324 325 325 325 326 327 327 327 328 328 328 327 327 327 328 328 328 328 327 327 326 325
309 309 309 310 309 308 308 308 308 307 307 306 305 304 304 304 304 304 304 304 304 304 304 304 304 304 304 304 304 304 304 305 306 307 308 310 311 313 315 316 317 318 320 322 323 324 325 325 325 326 326 326 326 326 325 326 327 328 328 327 326 326 325
309 309 309 310 310 309 308 308 308 308 307 306 306 305 305 305 305 305 305 305 305 305 305 304 304 304 304 304 304 303 303 303 303 304 305 306 306 308 309 310 312 313 314 316 317 319 321 322 323 324 324 324 323 323 322 322 323 324 324 324 322 321 322
309 309 309 310 310 310 309 308 308 308 308 307 307 306 306 306 306 306 306 306 305 305 305 304 304 305 305 305 305 305 304 304 303 303 303 303 303 304 305 306 307 309 310 311 312 314 317 319 320 321 322 322 322 321 320 317 316 317 317 318 317 317 318
309 310 309 310 310 310 310 309 309 308 308 307 307 307 306 306 306 306 306 305 305 305 305 305 305 305 305 305 305 305 305 305 304 304 303 302 302 302 303 303 304 305 306 308 308 309 312 314 317 319 320 320 320 320 319 317 314 313 313 315 316 318 319
309 310 310 310 310 310 310 310 310 309 308 308 307 307 307 306 306 306 306 305 305 305 305 305 305 305 305 305 305 305 305 304 304 304 304 303 303 302 302 302 302 302 303 304 305 306 307 310 313 315 315 315 315 316 318 319 318 315 315 317 316 318 321
309 309 310 310 310 310 310 311 311 310 309 308 308 307 307 306 306 306 306 305 305 305 305 305 305 305 305 305 305 304 304 304 304 304 303 303 303 303 302 302 302 302 301 302 302 303 304 305 307 309 311 312 313 313 314 315 315 313 312 314 313 315 320
309 309 309 310 311 311 311 311 311 311 310 310 309 308 307 307 306 306 306 305 305 305 305 305 305 305 305 304 304 304 304 304 304 303 303 303 303 303 302 303 302 302 302 302 301 301 302 302 303 305 307 309 312 313 313 312 312 312 311 310 311 311 315
310 309 309 310 311 311 311 311 311 311 311 311 310 309 308 307 307 306 306 306 305 305 305 305 305 305 305 304 304 304 304 304 304 304 303 303 303 302 302 302 302 302 302 302 302 302 302 301 302 303 305 307 309 311 313 313 313 313 312 309 308 310 312
311 310 310 311 311 312 312 311 311 312 312 312 311 310 309 308 307 306 306 306 306 305 305 304 304 304 304 304 304 304 304 304 304 304 303 303 303 302 302 302 302 302 302 302 302 302 302 302 302 302 303 305 306 308 310 312 311 309 308 307 308 312 312
312 311 311 311 311 312 312 312 312 312 312 312 312 311 310 309 308 307 306 306 306 305 305 305 304 304 303 304 304 304 304 304 304 304 303 303 303 303 302 302 302 302 302 301 302 302 302 302 302 302 302 303 305 306 307 309 309 306 305 306 307 309 309
315 314 313 312 312 313 313 313 313 312 312 312 312 312 311 310 309 308 307 306 306 305 305 305 304 304 303 303 303 303 304 304 303 303 303 303 303 303 302 302 302 302 302 301 301 301 301 301 301 301 302 302 303 305 306 307 307 305 305 305 305 305 305
318 317 315 315 314 314 314 315 314 313 312 312 312 312 312 311 310 309 308 307 306 306 305 305 305 304 303 303 303 303 303 304 304 304 303 303 303 302 301 301 301 301 301 301 300 300 300 300 300 300 301 301 302 304 305 305 305 304 304 305 305 304 305
318 318 318 317 316 316 316 316 316 315 313 312 313 313 313 312 311 310 309 308 308 307 306 305 305 305 304 303 302 302 303 303 304 303 303 303 303 302 301 300 300 300 300 300 300 300 299 299 299 299 300 300 302 304 304 303 303 303 303 303 304 304 304
317 318 318 318 318 317 317 317 317 317 315 313 313 313 312 312 312 311 310 309 308 308 306 306 305 305 304 303 302 302 302 303 303 303 303 303 302 301 300 300 300 299 300 299 299 299 299 298 298 298 298 299 301 303 303 303 303 303 303 303 303 303 304
317 317 318 319 319 318 318 318 318 318 317 315 313 313 313 312 312 311 310 309 308 308 307 306 305 305 305 304 302 302 302 303 303 303 302 302 301 300 299 299 299 299 298 298 298 298 297 298 297 297 297 298 299 300 302 302 303 303 303 303 303 304 304
319 317 318 318 318 318 318 318 318 318 318 317 315 314 313 313 312 311 310 309 309 309 308 306 306 305 305 304 303 302 302 303 303 303 302 301 300 299 298 298 297 297 297 296 296 296 296 296 296 296 296 297 298 298 299 301 302 302 302 302 303 303 303
321 320 319 318 317 318 318 319 319 319 319 318 316 314 314 313 313 312 310 309 309 309 308 307 306 305 305 305 304 302 302 302 303 303 302 301 299 298 297 297 296 296 296 296 296 295 295 295 295 295 296 296 297 298 298 299 300 300 300 301 301 302 302
321 321 321 320 319 319 319 319 319 319 319 318 316 315 315 314 313 312 311 310 309 309 309 307 306 305 305 304 303 302 302 302 303 302 302 300 298 297 296 296 296 296 297 297 297 297 296 296 297 297 298 298 298 298 298 298 299 299 299 300 300 301 301
320 321 321 321 321 321 321 320 320 319 319 318 316 315 315 314 313 313 312 310 310 310 309 308 306 305 305 304 303 302 302 302 302 302 301 299 298 296 296 296 296 296 296 297 297 298 297 297 298 298 299 299 299 300 299 299 299 299 299 299 300 300 301
316 319 320 320 321 321 321 321 320 320 319 318 317 316 315 313 312 312 311 310 310 310 309 308 306 305 304 303 302 302 302 302 302 300 299 298 296 296 295 295 295 295 296 296 296 297 297 297 297 298 298 298 298 299 299 299 299 299 299 300 300 300 300
312 315 318 320 320 321 321 321 321 320 319 318 317 316 315 313 312 312 311 310 310 310 308 307 305 304 304 303 302 302 302 301 300 298 297 296 295 295 294 294 294 295 295 295 295 296 296 297 297 297 297 297 297 298 298 299 299 299 299 299 299 299 300
309 312 314 317 319 320 320 320 320 320 319 318 317 316 315 312 312 312 311 310 310 309 307 306 305 304 303 302 302 301 300 298 297 295 295 294 294 294 294 294 294 294 294 295 295 295 295 296 296 297 297 297 297 297 297 297 298 298 299 299 299 299 299
307 308 311 314 317 319 319 320 320 319 319 317 316 315 314 312 312 311 311 309 308 307 306 305 304 303 302 302 300 298 296 295 294 294 293 293 293 293 293 293 293 293 294 294 295 295 295 296 296 296 297 297 297 297 297 297 297 297 297 298 298 298 299
305 306 307 310 314 318 319 319 319 319 318 317 316 314 313 312 311 311 310 308 307 306 305 304 303 302 301 299 297 295 294 293 293 293 293 293 293 293 292 293 293 293 294 294 295 295 295 296 296 296 296 297 297 297 298 297 297 296 296 296 296 297 298
304 304 305 307 311 315 317 318 318 318 318 316 315 314 313 312 311 310 309 307 306 305 304 303 302 301 299 296 294 294 293 292 292 292 293 292 292 292 292 292 293 293 294 294 294 295 295 296 296 296 296 297 297 297 297 297 297 297 297 296 296 296 297
303 303 304 305 309 313 315 317 317 317 317 315 314 313 313 312 310 309 308 306 305 304 303 303 301 298 296 294 294 293 293 292 292 292 292 292 292 292 292 292 293 293 294 294 295 295 295 296 296 296 296 297 297 297 297 297 297 297 296 297 296 297 297
303 303 303 304 308 312 314 315 316 317 316 315 313 312 312 310 309 308 306 305 304 304 303 301 298 296 295 295 294 293 292 292 292 292 292 291 291 291 292 292 293 294 294 294 295 295 295 296 296 296 296 296 296 297 297 297 297 296 296 296 296 296 296
302 303 303 304 307 311 313 315 316 316 315 314 312 311 311 309 308 306 305 304 304 304 302 299 296 296 296 295 294 293 292 292 292 292 291 291 291 292 292 293 293 293 294 295 295 295 295 295 295 295 295 295 295 295 296 296 296 296 296 296 296 295 295
302 303 303 303 306 310 313 315 316 315 314 313 312 311 310 308 306 305 305 305 305 302 299 297 296 296 295 294 294 293 293 292 292 291 291 291 291 292 292 293 293 294 294 294 294 294 294 294 294 294 294 294 294 294 294 295 295 295 295 295 295 295 294
302 303 303 303 304 309 312 314 315 314 313 311 310 309 307 306 305 305 305 304 302 299 297 296 295 295 295 294 294 293 293 292 292 291 291 291 291 292 292 293 293 294 294 295 294 294 294 293 293 293 293 292 292 292 293 293 293 293 293 294 294 294 294
301 303 304 303 305 309 313 314 314 313 311 310 309 307 305 305 305 305 303 301 299 297 296 295 295 295 295 295 294 293 292 292 292 291 291 291 291 291 291 292 292 293 294 294 294 294 293 293 292 292 292 291 291 292 292 292 292 292 292 292 292 292 292
302 304 304 304 307 311 314 314 314 312 310 309 307 306 305 305 304 302 300 298 297 296 296 296 296 296 295 294 293 292 292 292 292 291 291 291 291 291 291 291 292 293 293 294 294 293 293 293 292 292 291 291 292 292 292 291 290 290 290 290 290 290 291
303 304 305 306 309 312 313 313 312 311 309 307 306 305 305 303 302 300 298 297 296 296 297 297 296 295 293 293 293 293 292 292 291 291 290 290 290 290 291 292 292 293 293 293 293 293 292 292 292 292 292 292 292 292 291 290 290 290 290 290 290 290 290
305 305 306 308 311 312 312 312 310 309 307 306 306 305 303 301 300 298 297 297 297 296 296 295 294 293 293 293 292 292 292 291 290 290 290 290 290 291 292 292 292 292 292 292 292 292 292 292 291 291 291 291 291 291 291 291 291 291 291 291 291 291 291
306 306 307 310 311 312 311 310 308 307 306 306 304 302 300 298 298 298 298 297 296 295 293 293 292 292 292 292 292 291 290 290 290 290 290 291 292 293 292 292 292 292 292 292 292 292 292 291 291 291 291 291 291 291 291 291 292 292 292 292 292 292 293

ECMWFFLT1_850_thetae_012.txt.gz
Theta_e
314 311 308 308 308 308 307 307 306 305 306 305 304 304 305 306 309 312 312 314 316 317 316 315 314 314 314 312 311 314 317 319 321 324 325 325 326 326 326 325 326 326 325 325 326 327 328 328 328 328 329 329 329 329 330 330 331 332 331 329 330 330 330
311 310 309 309 308 308 308 307 306 306 306 305 305 304 304 304 304 305 306 307 309 312 312 309 306 306 306 305 304 305 308 309 311 315 319 321 322 323 324 324 324 324 325 325 325 326 326 327 327 328 328 328 328 329 330 329 330 330 330 330 330 330 330
309 309 310 309 309 309 308 307 307 307 306 305 305 305 305 305 304 304 304 304 304 306 307 305 304 304 304 304 304 303 304 304 304 306 310 312 313 315 317 319 321 321 322 324 324 324 324 324 325 326 326 326 326 328 328 328 329 329 329 329 329 329 330
309 309 310 310 309 309 308 308 310 309 307 306 306 306 306 305 305 306 305 305 305 305 305 305 304 305 305 305 305 305 305 305 304 304 304 305 305 306 307 312 315 315 316 319 320 321 321 322 323 323 323 323 323 325 325 326 327 327 327 327 327 328 328
309 309 309 309 310 310 309 310 311 311 309 307 306 306 306 306 306 306 305 305 305 305 305 305 305 306 306 306 306 306 306 306 306 306 305 305 304 303 303 304 305 306 308 310 313 315 317 319 320 320 320 321 322 322 323 324 323 322 322 324 325 326 327
309 309 309 309 310 311 311 310 311 313 311 308 307 306 306 306 306 306 306 305 305 305 305 305 306 306 306 306 306 306 306 306 306 305 305 305 304 304 304 303 303 303 304 304 305 306 308 312 316 319 318 318 319 319 319 319 320 320 320 321 322 323 325
309 309 309 309 310 311 312 310 311 314 314 311 308 307 307 306 306 306 306 306 305 305 305 306 306 306 305 305 305 305 305 305 305 305 305 304 304 304 304 304 304 303 303 303 303 303 303 305 312 315 314 315 316 316 316 315 316 318 320 321 321 321 323
309 309 309 310 309 310 311 310 311 313 315 313 310 307 307 307 306 306 306 306 305 305 305 306 305 305 305 305 305 305 305 305 304 304 304 304 303 303 303 303 303 303 303 303 303 303 303 303 306 307 308 311 313 314 315 315 315 315 317 317 318 319 320
309 309 309 310 310 310 310 310 311 312 314 314 310 308 307 307 307 306 306 306 306 305 305 305 305 305 305 304 304 304 304 304 304 304 303 303 303 303 303 302 302 302 302 303 303 303 303 303 303 303 304 308 312 313 313 314 315 315 316 317 318 319 320
309 309 309 309 309 310 311 311 311 311 312 312 311 309 308 307 307 307 307 307 306 306 305 305 305 305 304 304 304 304 304 304 304 304 303 303 303 303 302 302 302 302 302 302 302 302 302 303 303 303 304 307 310 312 313 313 314 315 316 316 316 317 317
310 310 310 309 309 310 310 311 311 311 311 311 311 311 309 308 308 307 307 307 307 306 306 305 305 305 305 304 304 304 304 304 304 304 304 303 303 303 302 301 301 302 301 301 301 301 302 302 302 302 303 305 307 310 311 313 313 313 314 313 314 316 317
312 311 310 310 310 310 310 311 311 312 311 311 311 312 311 310 309 308 308 307 307 307 306 306 306 305 305 304 304 304 304 304 304 304 304 304 303 303 303 302 301 301 300 301 301 300 300 301 301 302 303 305 306 306 307 310 312 312 312 313 314 314 314
312 312 311 311 311 310 310 311 311 312 312 312 311 311 312 311 310 309 308 308 307 307 307 306 306 306 305 305 304 304 304 304 303 304 304 304 304 303 303 302 301 301 300 301 301 301 301 301 300 300 302 303 305 305 305 307 311 312 311 311 311 309 309
313 313 312 312 312 311 311 311 311 312 312 312 312 312 312 312 311 311 309 309 308 307 307 307 306 306 305 305 305 304 303 303 303 303 303 304 304 304 303 302 302 301 301 301 300 301 303 303 302 303 303 303 304 305 306 307 309 310 310 310 310 310 308
311 312 313 313 313 313 313 312 312 312 313 313 313 312 312 312 312 312 311 310 309 308 308 307 307 306 306 306 305 305 304 303 303 303 303 303 303 303 303 303 302 301 301 300 299 300 303 303 303 305 306 305 304 305 305 305 307 308 309 309 309 309 308
311 310 311 313 314 315 316 315 314 313 314 314 315 314 313 312 312 312 312 311 310 309 309 308 307 306 306 306 305 305 305 304 303 302 302 303 303 303 303 303 302 301 300 300 299 299 300 300 301 304 306 305 304 303 303 302 303 305 307 307 307 308 308
316 313 311 311 311 313 315 317 316 316 315 315 315 315 315 314 313 313 312 312 311 311 310 309 308 308 307 306 305 305 305 305 303 303 302 303 303 303 303 303 302 301 300 300 298 298 299 299 300 302 304 305 305 305 304 303 302 303 305 306 306 306 305
320 319 317 315 313 312 312 313 315 316 316 316 316 316 316 315 314 313 313 313 312 312 311 310 310 308 307 306 306 305 305 304 304 303 302 302 303 303 303 302 301 300 300 299 298 298 298 298 298 299 300 302 304 305 305 305 305 305 306 306 306 305 304
321 321 321 320 319 318 316 314 313 314 315 316 317 317 316 316 315 313 313 313 313 312 312 311 310 309 308 307 306 305 305 304 304 303 302 302 302 302 302 301 300 299 299 298 297 297 297 297 297 298 298 299 300 301 302 303 304 304 305 306 306 306 306
321 322 323 323 322 322 321 320 318 317 316 316 316 317 317 317 316 315 313 313 313 313 312 311 311 310 309 308 307 306 305 304 304 303 303 302 302 302 301 300 299 298 297 296 296 296 296 296 296 297 298 299 300 301 301 301 302 302 303 304 305 306 306
314 318 320 322 323 323 322 321 321 320 319 319 318 318 318 318 317 316 314 313 313 313 312 311 311 310 309 308 307 306 305 305 304 303 302 302 301 300 300 298 297 296 296 295 295 295 295 295 295 296 297 299 300 301 302 302 302 302 302 303 304 305 305
308 310 313 316 319 322 322 322 321 320 320 320 320 320 319 319 318 317 316 314 313 312 312 311 311 310 309 308 307 306 306 305 304 303 302 301 300 299 298 297 296 295 294 294 294 294 294 294 294 295 295 296 297 299 300 302 303 303 303 304 304 304 305
305 306 306 308 311 316 319 321 321 320 320 320 320 320 320 319 318 316 316 315 313 312 312 312 311 311 310 308 307 306 305 305 304 303 302 300 299 298 298 296 295 295 295 294 293 293 294 294 294 294 295 295 295 296 298 299 301 302 303 303 304 304 305
304 305 305 306 306 307 311 317 320 320 320 319 319 320 320 319 318 316 315 314 314 313 312 312 312 311 310 308 306 306 305 304 303 301 300 299 298 297 297 296 295 294 294 293 293 293 293 294 294 294 294 295 295 295 296 297 298 299 301 302 303 303 304
304 304 305 305 305 304 305 312 317 319 319 319 319 320 319 318 316 315 314 313 313 313 313 312 312 311 309 307 306 305 304 303 301 299 298 297 296 296 296 295 294 294 293 293 293 293 293 294 294 294 294 295 295 295 296 296 296 297 298 299 301 302 302
303 303 304 304 304 305 306 309 314 317 318 319 318 319 319 318 316 315 314 313 312 313 312 312 311 310 308 307 306 305 303 301 299 297 296 296 295 295 294 293 293 293 292 293 293 293 294 294 294 295 295 295 295 295 296 296 296 296 296 297 298 299 300
302 302 303 303 303 305 307 310 312 315 317 317 317 318 318 317 316 315 314 313 312 312 312 311 310 309 307 306 305 304 301 299 297 295 294 294 294 294 293 292 292 292 292 292 293 293 294 294 295 295 295 295 296 296 296 296 296 297 297 297 297 297 297
301 301 301 302 302 303 306 307 309 313 315 314 316 317 317 316 316 315 314 313 312 312 311 310 309 307 306 305 304 302 299 296 295 295 294 294 293 293 292 292 292 292 292 293 293 293 294 294 295 295 295 295 295 295 296 297 297 297 298 298 298 298 298
300 301 301 302 302 301 303 303 306 312 314 312 314 317 317 317 316 314 313 312 312 311 310 309 307 306 305 303 301 299 297 296 295 295 294 294 293 293 292 292 292 293 293 293 293 294 294 295 295 295 295 295 295 295 296 296 296 296 297 297 297 298 298
300 300 300 302 303 303 302 301 304 310 312 312 314 316 316 316 315 314 313 312 311 310 308 307 305 304 303 301 298 297 296 296 296 296 295 295 294 294 293 293 293 293 293 293 293 294 295 295 295 295 295 295 295 295 295 296 295 295 295 295 296 296 296
299 299 300 302 303 303 302 302 306 311 310 311 314 315 314 314 314 313 312 311 309 308 306 305 304 302 300 298 296 296 296 296 297 297 296 296 296 295 294 294 293 292 293 293 294 294 295 295 295 294 294 294 294 294 295 295 295 295 295 295 295 295 295
299 299 299 301 302 302 302 302 308 311 310 310 313 314 313 313 312 311 310 309 307 305 304 303 301 299 297 296 296 296 296 296 296 296 296 296 296 296 295 295 294 293 293 294 294 295 295 295 294 294 294 294 294 294 294 294 294 295 295 295 294 294 294
300 299 299 300 301 302 302 305 310 311 310 311 313 314 313 312 311 310 308 306 305 303 301 299 298 297 296 296 296 296 295 295 295 296 296 296 296 295 295 295 295 295 294 294 294 294 294 294 293 293 293 293 293 293 293 293 293 293 293 293 293 293 293
301 301 301 301 301 302 304 308 310 310 310 312 314 313 312 310 309 308 306 304 304 302 299 297 297 297 297 297 296 295 294 293 294 294 294 294 294 294 294 294 295 295 295 294 294 294 293 293 293 293 292 292 293 293 292 292 292 291 291 291 291 292 292
303 303 303 303 303 305 308 309 309 309 310 313 313 311 310 308 307 306 304 303 301 299 298 297 297 297 297 296 295 294 293 293 292 292 292 291 291 292 293 294 295 295 294 294 293 293 293 292 292 292 292 293 293 292 292 291 290 290 290 290 291 291 292
303 304 305 305 306 308 309 308 308 310 312 312 311 309 307 306 305 303 301 300 298 297 297 297 296 296 295 294 293 293 292 292 291 291 290 290 291 292 293 294 295 295 294 293 293 293 293 293 293 293 293 292 292 292 291 290 289 289 290 290 291 291 291
305 305 306 306 307 308 308 307 308 312 312 310 308 307 305 304 302 300 298 297 297 297 296 295 295 294 293 293 292 292 291 291 290 290 291 292 292 293 294 294 294 294 294 294 293 293 293 293 293 293 293 292 292 291 290 290 289 290 290 290 291 291 292

ECMWFFLT1_850_thetae_015.txt.gz
Theta_e
320 319 318 317 315 313 310 312 314 312 310 308 309 312 315 316 318 320 320 320 321 320 320 321 321 321 320 319 318 320 323 324 325 327 326 326 325 326 326 325 325 325 326 327 328 328 328 327 327 328 327 325 324 322 322 325 326 326 329 330 330 331 331
319 317 317 317 313 311 311 314 318 316 311 308 308 309 311 312 313 315 317 318 318 318 318 318 316 313 310 309 310 312 315 316 317 321 324 324 324 325 326 325 324 325 326 326 328 328 327 327 327 327 326 325 324 322 322 323 324 325 327 328 329 330 330
318 316 318 318 315 314 314 314 317 317 312 308 308 307 308 309 308 309 309 309 311 313 313 311 309 306 304 305 306 306 307 308 307 309 313 317 318 317 320 323 323 323 324 324 325 325 325 325 325 326 325 324 323 323 322 322 323 324 324 327 329 330 329
318 317 318 318 317 319 318 317 318 319 315 309 307 307 307 307 306 307 306 305 306 307 307 308 307 307 305 305 306 305 306 307 306 305 305 308 313 312 312 318 320 318 319 320 322 323 322 322 323 323 323 322 322 321 321 322 323 322 323 326 328 328 329
316 316 319 318 318 319 319 319 319 319 317 311 308 308 307 307 307 306 306 305 305 305 306 307 307 308 307 306 307 306 306 306 305 306 304 305 312 314 311 312 315 315 317 316 316 317 317 317 318 318 317 318 319 320 321 322 323 322 322 323 324 325 327
313 313 318 317 317 319 319 319 320 319 319 314 310 309 308 307 307 307 306 306 306 306 306 306 307 307 307 307 306 306 306 306 305 306 306 304 307 310 310 311 313 315 315 311 307 310 312 312 314 316 316 317 317 317 317 317 317 318 320 320 320 321 323
312 311 316 318 317 319 319 319 319 319 320 317 313 310 308 308 308 307 307 306 306 306 306 306 306 306 307 308 307 306 306 306 306 305 305 305 304 304 307 309 310 310 310 307 305 309 313 313 315 316 316 315 315 314 314 314 314 315 317 319 320 320 320
315 312 315 318 317 317 320 319 318 319 320 319 316 311 308 309 309 307 307 307 306 306 306 306 306 306 306 307 306 306 306 305 306 306 305 305 304 304 304 305 308 310 307 306 308 310 311 312 313 314 314 313 314 314 314 314 315 315 316 317 318 318 319
320 317 316 318 318 316 318 319 318 318 319 320 318 313 309 309 309 307 307 307 307 307 306 305 306 306 305 306 306 305 306 305 305 305 305 305 304 304 303 302 308 310 305 303 307 307 306 306 307 310 313 314 314 315 315 314 314 315 316 317 317 318 319
322 321 318 318 319 316 316 318 318 319 319 320 319 313 309 310 309 308 308 308 307 307 307 306 306 306 305 305 305 305 305 305 305 305 305 305 304 304 304 302 305 308 305 302 304 303 303 303 302 305 309 312 313 314 314 315 314 315 315 315 316 316 317
320 322 321 320 321 318 315 315 317 319 319 320 319 313 311 311 310 309 308 308 308 307 307 307 306 306 306 306 305 305 305 304 305 305 304 305 305 304 304 303 303 305 304 302 302 302 302 303 302 303 306 309 312 313 314 314 314 314 314 314 314 315 316
314 318 321 321 323 322 318 315 316 318 318 319 319 314 311 312 311 310 310 308 309 308 308 308 307 306 306 306 306 305 305 305 304 304 304 304 304 304 304 304 303 304 303 302 304 303 302 303 302 303 305 308 311 312 313 313 313 313 313 315 315 315 315
315 318 321 321 323 323 321 318 317 317 317 317 317 315 312 312 312 311 311 310 309 309 308 308 307 307 307 307 307 307 306 304 304 305 304 304 304 304 304 304 304 304 304 304 305 304 304 305 304 302 304 307 309 311 312 312 313 313 313 313 314 313 313
316 318 321 322 323 323 322 320 319 318 318 317 316 314 312 313 313 312 312 312 311 310 309 309 308 308 308 308 308 309 307 305 306 307 305 304 304 304 304 305 305 304 304 304 303 304 306 308 307 306 308 309 310 311 311 312 312 312 312 312 313 313 313
313 315 321 322 323 322 320 321 322 320 319 319 317 315 313 313 314 314 314 314 314 313 311 311 310 308 308 309 308 308 307 306 307 307 305 303 304 304 303 304 304 304 304 303 303 303 306 308 307 308 309 310 310 310 310 310 311 311 311 310 311 311 311
316 317 320 321 322 321 317 318 322 321 320 320 319 318 315 314 314 315 315 316 315 315 314 313 312 310 310 310 308 308 307 306 306 306 305 304 306 306 304 303 304 304 303 304 303 302 303 305 306 308 308 308 309 309 309 310 310 309 310 309 309 310 310
322 321 320 320 321 322 319 316 317 319 321 321 320 320 318 317 317 317 317 317 317 316 315 315 314 313 311 311 310 309 308 307 306 306 305 305 306 305 304 303 304 304 303 303 302 302 304 305 305 306 307 307 307 308 309 310 310 310 310 310 309 309 309
322 321 320 319 319 320 320 318 316 318 321 321 319 320 320 319 318 319 318 318 318 318 317 316 315 314 313 312 311 310 309 308 307 306 306 305 305 304 303 303 303 303 302 302 301 302 303 303 301 301 302 304 305 306 306 307 307 308 308 309 309 308 308
322 322 320 320 319 318 318 320 320 319 320 320 319 318 320 320 319 319 319 319 319 319 318 317 316 315 314 313 312 311 310 309 308 307 306 306 305 305 304 303 302 302 302 301 301 300 300 299 298 299 299 300 301 302 303 303 304 306 306 307 308 308 308
318 319 320 321 322 321 321 322 322 322 321 320 320 319 319 320 320 319 319 319 319 319 318 318 317 315 314 313 312 311 310 309 308 307 307 306 305 305 304 303 302 302 301 301 300 299 298 297 297 297 297 298 300 301 302 303 305 306 307 307 307 307 308
313 313 315 317 318 321 323 323 322 321 321 321 321 320 320 320 320 320 319 319 319 319 319 318 317 316 314 314 313 312 311 310 308 308 307 306 305 305 304 303 302 301 301 300 299 298 297 297 296 296 296 296 297 298 299 300 303 305 306 306 307 307 307
310 309 308 309 311 313 317 319 320 320 320 320 320 320 320 321 321 321 320 320 319 319 318 318 318 316 314 313 313 312 311 310 309 308 307 306 305 305 304 303 302 301 301 300 298 297 297 296 295 295 294 294 294 295 295 296 299 303 305 306 306 306 306
308 308 308 309 311 310 310 315 319 321 321 321 321 321 321 321 321 321 320 320 319 319 318 318 317 316 314 313 313 312 311 310 309 307 306 305 305 304 304 303 301 301 300 299 297 297 296 295 294 294 294 294 294 294 294 295 296 298 301 303 304 305 305
309 310 310 312 315 315 315 317 319 320 320 320 319 320 321 321 321 320 320 319 319 319 318 317 317 315 314 313 312 311 311 310 309 307 306 305 304 304 303 302 300 300 299 298 297 297 296 295 294 294 294 294 294 294 294 295 295 295 297 298 300 302 304
308 309 310 311 313 315 317 318 318 318 318 318 317 317 320 321 320 319 319 319 318 318 317 316 316 315 314 313 312 311 310 309 308 307 306 305 304 303 302 301 299 298 297 296 295 295 294 295 296 295 295 295 295 295 295 295 295 295 295 296 297 298 300
307 307 308 309 311 313 315 316 317 317 317 318 317 315 316 319 319 319 319 318 318 317 316 315 315 314 314 313 312 311 309 307 307 306 305 304 304 303 301 299 298 297 296 296 295 295 295 296 296 295 295 295 295 295 295 295 295 296 296 296 296 297 297
307 308 308 308 308 310 312 314 316 316 316 317 317 315 313 314 316 318 319 318 317 316 315 315 315 314 313 312 312 311 307 305 305 305 304 303 303 301 300 299 297 296 296 296 296 296 296 295 295 294 294 295 296 296 296 296 296 296 296 296 297 297 297
307 307 307 308 308 308 310 312 314 315 316 315 316 316 314 313 314 316 317 317 316 316 315 315 314 313 312 311 311 310 307 305 305 305 303 302 301 299 298 298 297 297 296 297 297 296 295 294 294 294 294 295 296 296 297 297 297 297 297 298 298 298 299
308 307 307 307 308 308 309 311 313 314 315 315 315 315 314 314 315 316 317 316 315 315 315 315 314 312 311 311 309 308 306 306 305 303 302 300 299 299 298 298 298 298 298 297 297 296 295 294 294 294 294 295 295 296 297 297 297 297 297 298 298 298 299
307 307 307 307 307 308 308 309 311 313 314 314 314 314 314 314 314 315 316 315 315 315 314 313 312 310 310 309 308 306 305 304 303 301 300 300 300 300 300 300 299 298 298 297 297 295 294 294 294 294 295 295 295 296 296 297 297 297 297 297 297 297 297
307 307 307 307 306 307 308 308 310 313 313 313 313 313 313 313 313 314 315 314 314 314 313 311 310 309 308 308 306 304 302 302 301 301 301 301 300 300 300 300 299 298 297 297 297 296 295 295 295 295 295 295 295 295 296 296 296 297 297 297 297 297 297
307 306 306 306 305 307 308 308 310 312 312 312 313 312 312 313 313 313 314 313 313 313 312 310 308 307 306 305 304 302 300 300 300 300 300 300 300 300 300 300 299 298 297 297 297 296 296 295 295 295 295 294 294 294 295 295 296 296 296 297 297 297 297
308 307 306 305 305 306 308 309 310 312 312 312 312 312 312 312 312 312 312 313 312 311 309 308 307 305 303 302 301 300 299 299 298 299 299 299 299 299 299 298 298 297 297 297 296 296 295 295 295 295 294 294 294 294 294 294 295 295 295 295 295 295 295
307 307 306 306 305 306 308 310 311 311 312 311 311 311 311 311 311 311 311 311 310 308 307 306 305 302 300 300 299 299 299 298 297 296 296 296 296 296 297 297 297 296 296 296 296 296 295 295 295 294 294 294 294 293 293 293 293 293 293 293 293 293 293
307 307 305 303 304 306 309 311 311 311 311 311 311 311 310 310 310 310 309 308 307 306 304 303 301 299 299 299 299 299 298 296 294 294 293 293 294 294 295 296 296 296 296 296 296 296 295 295 294 294 293 293 293 293 293 292 292 292 292 292 292 292 292
307 307 306 305 305 307 308 310 311 310 310 311 310 309 309 310 310 309 307 306 305 304 302 300 300 299 299 299 298 296 295 294 293 293 292 292 292 293 294 295 296 296 296 295 295 295 294 294 293 293 293 293 293 292 292 292 291 291 291 291 291 291 292
307 307 308 307 307 308 308 309 310 310 310 310 309 309 309 309 307 306 306 304 302 300 299 299 299 298 297 295 294 293 293 293 292 292 292 292 293 294 294 295 295 295 295 294 294 294 294 294 293 293 293 293 292 292 291 291 291 291 291 291 291 291 291

ECMWFFLT1_850_thetae_021.txt.gz
Theta_e
309 309 309 308 307 308 308 308 307 307 310 312 312 313 317 320 321 321 321 321 322 322 322 323 323 323 323 322 322 321 321 324 326 326 326 326 326 327 327 326 325 325 325 324 324 324 324 325 325 326 326 326 325 324 323 322 322 322 321 321 322 323 325
309 308 308 308 307 307 308 307 307 307 308 309 308 307 311 317 320 320 319 320 321 320 319 320 320 321 322 322 322 319 317 321 325 325 325 325 326 326 325 325 325 325 325 324 324 324 323 323 324 325 324 323 323 323 323 322 322 321 321 321 321 321 322
309 308 308 308 307 308 307 307 308 308 307 307 307 306 306 310 314 318 319 318 317 313 310 310 310 311 313 314 315 313 310 315 322 323 323 323 324 324 324 323 324 324 324 323 323 323 324 323 323 323 321 318 317 320 323 323 320 318 319 320 321 321 320
308 309 308 308 308 308 308 308 307 307 308 307 307 307 306 305 307 311 314 313 309 307 305 306 306 305 306 306 306 306 305 309 316 319 320 319 320 322 322 322 322 322 322 323 323 323 323 322 322 322 320 317 315 318 322 321 317 314 315 317 319 320 320
308 309 309 309 308 308 308 308 308 308 308 308 307 307 307 306 306 307 308 307 306 306 306 306 306 306 306 306 306 306 305 306 309 311 311 311 312 315 319 320 320 320 320 321 321 321 321 322 322 321 320 317 313 315 318 317 314 313 313 315 317 319 319
309 309 309 309 308 309 309 308 308 308 307 308 307 307 307 306 306 306 306 306 306 306 306 306 306 306 306 306 306 306 306 306 306 306 306 306 306 308 311 312 313 313 313 313 311 311 313 315 315 315 314 312 310 312 315 315 314 314 315 318 319 319 319
309 309 309 309 309 309 309 309 309 308 308 308 308 307 307 307 307 307 306 306 306 306 306 306 306 306 306 306 306 306 306 306 306 306 306 305 305 306 306 307 307 306 306 306 306 305 306 307 307 307 307 308 308 310 312 313 314 314 316 319 321 322 323
310 309 309 309 309 309 309 309 309 309 309 308 308 308 308 307 307 307 307 306 306 306 306 306 306 306 306 306 306 306 306 305 306 306 306 305 305 305 305 305 306 305 304 304 304 304 304 304 305 305 305 307 308 310 312 314 315 315 315 316 319 321 322
311 310 310 309 309 309 309 310 310 310 310 309 309 309 308 308 308 307 307 307 307 306 306 306 306 306 306 306 306 306 305 305 305 305 305 305 305 304 304 305 304 304 303 303 303 303 303 303 303 303 303 305 306 307 310 312 314 314 314 314 317 318 318
313 311 312 312 311 311 312 311 310 310 310 310 310 310 309 309 308 308 308 307 307 307 307 307 306 306 306 306 306 306 305 305 305 305 305 304 304 304 304 304 303 303 303 303 303 303 303 303 302 302 303 303 304 304 304 306 309 311 312 311 314 315 316
316 313 314 316 315 315 316 314 313 312 310 309 310 310 310 309 309 309 309 309 308 308 308 307 307 307 307 307 306 306 306 305 305 305 305 305 304 304 304 304 303 304 303 303 303 303 303 303 303 303 303 303 303 303 303 303 304 306 307 307 309 311 313
318 315 316 319 318 317 317 316 315 314 312 310 310 310 311 311 310 310 310 310 310 309 309 308 308 308 308 307 307 307 306 306 306 305 305 305 305 305 304 304 304 305 305 305 305 304 304 304 304 305 306 306 306 306 305 304 304 304 304 305 305 306 308
319 317 317 319 319 319 319 318 317 316 315 314 314 314 314 313 313 313 312 312 311 311 311 310 309 309 308 308 308 308 307 307 307 306 306 305 305 305 305 305 305 305 305 305 306 305 305 305 305 306 307 308 308 308 307 306 306 304 304 304 304 304 304
322 321 319 319 320 320 320 319 319 318 317 317 317 317 317 317 316 317 317 316 314 313 313 312 312 311 310 309 309 308 308 308 308 307 307 307 306 306 306 306 306 306 306 306 306 306 306 305 305 306 306 307 308 308 308 307 307 305 304 304 304 303 303
323 323 323 322 322 322 322 321 320 319 319 319 319 319 318 318 318 319 319 319 318 317 316 315 315 314 313 312 311 310 309 309 309 308 308 307 307 307 306 307 307 306 306 306 305 305 305 305 305 305 305 305 307 307 307 306 305 305 304 304 303 303 302
323 324 324 323 322 322 322 322 321 320 320 319 319 319 318 318 319 320 320 320 320 319 318 318 317 317 316 315 314 313 312 311 310 309 309 308 308 307 307 307 307 307 306 306 305 305 305 305 305 304 304 304 304 304 304 303 303 304 303 303 303 301 300
324 323 322 322 323 323 322 322 322 322 321 320 319 319 318 319 319 320 320 321 321 320 319 319 318 318 318 317 317 316 315 313 312 311 310 309 308 308 308 308 307 307 307 307 306 306 305 305 305 304 304 304 303 303 303 302 302 302 302 302 301 300 299
322 320 319 318 320 321 321 321 321 322 321 320 319 319 319 318 319 319 319 320 320 320 320 319 319 319 319 318 318 317 316 315 314 313 312 311 309 309 308 308 307 307 307 307 307 306 305 304 304 304 303 303 303 303 302 301 301 300 300 300 300 300 299
321 319 317 317 318 319 320 319 318 319 319 318 318 318 318 317 318 318 318 319 320 320 320 320 319 319 319 319 318 318 317 317 316 315 314 312 311 310 309 308 308 307 307 307 307 307 306 304 303 303 303 303 303 303 302 301 300 299 298 298 299 300 300
321 320 318 318 318 318 318 317 317 317 317 317 317 316 317 316 316 316 316 317 318 319 320 319 319 319 319 318 318 318 318 317 316 316 315 314 313 311 311 309 309 308 308 308 308 308 307 305 304 303 302 302 302 302 302 301 300 299 298 298 298 298 298
322 321 320 319 318 317 316 317 318 319 319 318 317 317 317 317 317 317 317 317 317 318 319 319 319 319 319 318 318 318 318 317 317 316 315 315 314 313 312 311 311 310 309 309 309 308 307 306 304 303 302 302 302 302 301 301 300 299 298 299 299 298 298
317 316 315 314 312 312 312 314 317 318 318 317 316 315 315 315 316 316 316 316 316 317 318 318 319 319 319 318 317 318 318 317 317 317 316 315 314 314 314 313 312 311 310 309 309 309 308 306 304 303 302 302 301 301 301 301 300 300 300 300 300 299 299
308 308 308 308 308 309 310 312 313 315 314 314 314 314 315 316 317 317 317 316 316 316 318 319 319 319 319 318 317 318 318 318 317 316 316 315 315 314 314 313 313 312 310 310 309 309 307 305 303 303 302 301 301 301 301 301 301 301 300 300 300 299 298
307 308 308 309 310 311 312 313 315 316 317 317 316 317 317 318 318 317 317 318 318 318 318 319 319 319 319 318 318 318 318 318 317 316 316 315 315 315 314 313 313 311 311 310 309 308 307 304 303 302 301 301 301 301 301 301 301 300 299 299 299 298 297
308 308 308 309 309 310 311 312 314 315 316 317 317 317 317 317 317 317 317 317 318 317 317 318 319 319 319 318 317 317 317 318 318 317 316 316 315 315 314 313 311 311 310 310 308 307 306 304 302 301 301 301 301 302 301 301 300 299 298 297 297 297 296
306 307 307 308 308 309 309 310 311 313 314 315 316 316 317 317 317 317 315 314 315 315 316 317 319 319 319 318 317 317 317 318 319 318 316 316 315 314 313 311 310 310 309 308 307 306 305 304 302 301 301 302 302 302 301 300 299 297 296 295 295 296 296
307 307 307 307 308 308 308 308 309 309 311 313 314 316 316 316 316 316 314 312 313 313 314 315 316 317 318 318 318 318 318 318 318 317 316 315 314 313 312 311 309 309 308 307 305 304 302 302 301 301 301 301 301 301 300 299 298 296 295 295 295 295 296
306 307 307 307 306 305 305 305 306 307 308 309 311 312 313 314 315 315 315 314 313 312 310 311 311 312 314 316 318 318 318 317 316 315 314 313 312 311 310 309 308 307 306 305 303 301 301 301 301 300 300 300 300 299 299 298 297 296 295 295 295 295 296
307 306 305 305 304 303 303 303 304 304 304 305 307 310 312 313 313 314 314 315 315 313 310 308 308 310 312 315 317 317 317 316 315 313 312 312 312 310 308 308 307 306 305 304 303 302 301 301 301 300 300 300 299 298 298 297 296 296 295 295 295 295 295
308 306 305 304 304 304 303 302 302 301 301 302 304 307 310 312 312 312 313 314 314 314 312 311 311 314 315 316 317 316 316 314 313 312 311 310 310 308 307 306 306 305 304 304 303 302 302 301 300 300 300 299 299 298 297 297 296 296 296 295 295 295 295
307 307 307 306 305 304 303 302 302 301 300 300 301 305 308 310 311 312 312 312 313 313 313 312 313 315 316 316 316 315 314 313 312 311 310 309 307 306 305 305 305 305 304 303 302 302 301 300 300 300 299 298 298 297 297 296 296 296 296 296 296 295 295
307 307 308 306 305 303 303 303 303 302 301 300 300 303 307 309 311 312 312 312 312 312 313 312 313 314 315 315 315 315 313 312 311 309 308 307 306 305 305 306 305 304 303 301 301 301 300 300 299 298 298 297 297 296 296 296 296 296 296 295 295 294 294
306 306 305 305 304 304 304 304 304 304 302 300 299 302 306 309 310 311 311 311 311 312 312 312 312 313 314 314 314 314 314 312 311 309 309 308 307 306 305 304 303 302 301 301 300 300 299 298 298 297 297 296 296 296 296 296 295 295 295 294 294 294 294
305 305 305 305 306 306 306 306 305 305 303 301 300 302 306 308 310 310 311 311 311 311 312 311 311 312 313 313 313 313 313 312 311 309 309 308 306 304 304 303 302 301 301 299 298 298 297 297 296 296 296 296 296 295 295 295 294 294 294 293 293 293 293
305 305 305 305 306 306 306 306 305 305 304 303 303 305 308 309 310 310 310 310 311 311 311 311 311 310 310 311 312 312 311 310 310 309 308 306 304 303 302 302 301 299 298 297 296 296 295 296 295 295 295 295 295 294 294 294 293 293 293 293 293 293 293
305 306 305 305 305 305 305 305 305 305 305 305 306 308 309 310 310 311 310 310 311 311 311 311 310 308 307 308 309 310 309 309 308 307 306 304 302 302 301 300 299 297 295 294 294 294 295 295 295 294 294 294 294 294 293 293 293 293 293 293 292 292 292
305 305 305 305 304 304 305 305 305 306 307 306 306 308 309 310 310 310 310 310 310 310 310 309 308 307 306 307 307 307 307 306 306 305 304 303 302 301 300 298 296 294 294 293 294 294 294 294 294 294 294 294 293 293 293 292 292 292 292 292 292 292 292

ECMWFFLT1_850_thetae_024.txt.gz
Theta_e
311 308 308 307 306 306 306 307 310 314 317 318 317 317 319 320 320 320 321 320 321 322 322 322 322 322 322 322 321 317 317 323 326 326 326 326 326 326 326 326 326 326 325 324 324 324 323 324 325 325 325 325 325 325 324 323 322 322 322 322 323 322 323
310 308 307 307 307 307 306 306 307 307 310 312 315 317 319 320 320 321 321 320 321 322 322 322 321 322 321 319 318 316 316 321 325 325 326 326 326 326 326 326 326 325 324 323 323 323 322 323 324 325 325 324 323 323 323 322 321 321 321 321 321 321 322
309 308 307 307 307 306 307 306 307 306 306 307 310 315 319 320 319 320 320 320 320 320 319 320 319 319 317 314 312 312 314 320 324 325 325 325 325 325 325 325 326 325 324 323 323 323 323 322 323 324 323 320 319 321 323 322 320 321 321 321 320 321 321
309 308 307 308 307 307 307 307 306 306 307 306 306 312 318 320 319 319 318 316 314 312 311 311 311 310 309 307 306 307 311 317 321 322 322 322 323 323 324 323 324 324 324 323 323 323 323 323 323 323 321 317 316 319 320 319 318 319 319 319 319 320 320
308 308 308 308 307 307 307 307 307 306 306 306 305 308 313 317 317 313 310 308 307 306 306 306 306 306 306 305 305 306 307 310 313 313 313 314 316 318 320 322 322 323 323 323 323 323 323 321 321 322 322 319 317 316 316 316 316 316 316 316 317 318 319
310 308 308 308 307 308 307 306 307 306 306 307 306 306 307 309 309 307 306 306 306 306 306 306 306 306 306 306 306 306 306 306 306 307 308 308 309 311 314 317 318 319 320 319 319 317 314 313 313 316 318 317 315 313 313 316 318 317 317 317 317 317 318
314 309 307 308 308 307 308 307 307 307 306 306 306 306 306 306 306 306 306 306 306 306 306 306 306 306 306 306 306 306 306 306 305 305 306 306 306 307 308 309 310 310 310 310 309 308 306 306 307 308 309 309 309 309 312 315 317 318 319 320 321 320 319
318 312 307 309 308 308 308 307 307 307 307 307 307 306 306 306 306 306 306 306 306 306 306 306 306 306 306 306 306 305 305 306 305 305 305 305 305 305 306 306 305 305 305 305 305 305 305 305 305 305 304 306 308 310 313 314 315 316 318 320 321 322 322
320 315 309 308 309 308 309 308 308 308 307 308 307 307 307 306 307 306 306 306 306 306 306 306 306 306 306 306 305 305 305 305 305 305 305 305 305 304 304 305 304 304 304 304 303 303 303 303 304 304 303 304 305 307 309 311 314 315 316 317 318 319 320
320 317 312 310 310 310 310 311 311 310 309 308 308 308 308 307 307 307 307 307 307 307 307 306 306 306 306 306 305 305 305 305 305 305 304 304 304 304 304 304 303 303 303 303 303 303 303 303 303 303 303 303 303 303 304 306 309 311 312 314 316 317 318
318 318 316 313 312 312 313 313 314 314 312 310 309 309 309 308 308 308 308 308 308 308 307 307 307 307 307 306 306 306 305 305 305 305 304 304 304 304 303 304 303 304 304 303 303 303 303 303 303 303 303 303 303 303 303 303 305 307 307 307 309 313 315
317 318 318 316 314 314 316 315 315 316 316 314 312 311 310 310 310 310 310 310 310 309 309 309 308 308 308 307 307 307 306 306 305 305 305 305 305 305 304 304 305 305 305 305 305 305 304 304 304 304 304 304 304 303 303 303 304 305 305 304 304 306 307
316 318 319 318 316 316 317 317 316 317 316 315 314 312 312 312 312 312 312 311 311 311 311 311 311 310 310 309 309 308 307 307 307 306 306 305 305 305 305 305 305 305 306 306 306 306 306 305 305 305 305 305 305 305 305 305 305 305 305 304 304 303 303
316 317 319 319 319 318 318 318 317 317 317 316 316 315 315 315 315 315 315 314 313 313 313 313 313 312 312 312 311 310 309 308 308 307 306 306 305 305 305 305 305 305 305 305 305 305 305 306 306 306 305 305 305 305 305 305 305 306 306 305 304 304 303
316 317 319 320 320 320 319 319 319 318 318 317 317 318 318 317 316 316 317 317 317 317 316 315 315 315 315 314 314 313 312 311 311 310 308 307 307 307 306 306 305 305 305 305 305 305 305 305 306 305 305 305 305 304 304 304 304 305 307 307 306 306 305
319 319 319 319 319 319 319 319 319 319 319 318 318 318 319 318 317 316 316 317 318 318 318 318 318 318 317 317 316 316 315 315 314 313 312 311 309 308 308 307 307 306 306 306 306 305 305 305 305 305 305 304 304 303 303 303 303 304 305 307 307 307 307
321 320 320 319 319 320 320 319 320 320 320 319 319 318 318 317 317 317 316 317 318 318 318 318 318 318 318 318 318 318 317 317 316 316 315 315 313 311 310 309 308 308 307 307 307 307 306 305 305 304 304 304 304 303 303 303 302 302 303 305 306 306 305
320 321 321 321 321 320 319 320 321 321 321 320 320 319 318 317 317 317 317 317 318 318 318 318 318 318 318 319 319 319 319 318 318 317 317 317 316 314 313 311 310 309 309 309 309 309 309 308 306 305 304 304 303 303 303 303 302 302 301 302 304 304 304
319 321 320 320 320 320 319 320 321 321 322 321 320 320 319 319 318 318 319 319 320 319 319 318 318 318 318 319 319 319 319 318 318 318 318 318 317 316 316 314 313 311 311 311 311 310 310 310 309 307 305 304 303 303 303 302 302 302 302 302 303 304 305
320 321 320 319 319 319 320 321 322 322 322 322 321 321 320 319 318 318 318 320 320 320 320 320 319 319 319 319 319 319 319 318 318 318 318 318 317 317 317 316 316 314 313 312 311 311 311 310 310 309 307 305 304 303 302 302 301 301 302 302 302 304 306
321 321 320 319 319 319 318 319 321 321 321 321 321 320 319 318 317 317 317 318 318 318 319 319 319 319 319 319 319 319 319 319 318 318 318 317 317 317 317 317 317 316 315 313 312 312 312 311 310 309 308 306 305 303 302 301 301 301 301 302 302 303 304
320 320 319 320 320 320 319 318 318 319 319 319 318 318 317 317 317 317 317 317 317 317 317 317 317 318 318 319 319 319 319 318 318 317 317 317 317 317 317 317 317 316 315 314 312 312 313 312 311 309 308 307 305 303 301 300 300 301 301 301 302 302 303
318 318 318 318 317 317 316 314 313 313 314 314 314 314 313 314 315 315 316 317 317 317 317 316 316 316 317 318 318 319 319 318 318 317 317 317 317 316 316 317 317 316 315 314 312 312 312 312 311 310 309 308 306 303 301 300 300 300 300 301 302 302 301
311 311 311 311 310 310 311 311 311 312 314 314 314 314 314 315 316 317 318 318 317 318 318 317 318 318 318 318 319 319 319 318 318 318 318 317 317 317 317 317 316 316 315 314 313 311 311 311 310 309 309 308 307 305 302 301 301 300 300 300 301 300 299
308 308 308 308 308 310 311 312 313 315 316 317 317 317 317 317 317 317 318 318 317 317 317 317 318 318 319 320 320 320 320 319 319 318 318 317 317 317 317 316 316 315 314 314 312 311 310 310 309 308 308 308 308 307 304 302 301 301 300 300 300 299 298
308 308 308 308 309 309 310 311 312 314 316 316 317 316 316 316 316 316 317 317 316 315 314 314 315 316 318 319 320 320 320 319 319 318 318 317 317 317 316 315 315 314 313 312 311 310 310 309 309 308 308 308 308 307 305 303 301 300 299 299 299 299 298
307 307 307 307 308 308 309 310 310 311 312 313 313 313 314 314 315 315 315 315 315 314 312 310 311 313 315 317 318 319 319 319 318 318 318 318 317 317 315 314 314 313 312 311 310 309 308 307 307 308 308 308 307 305 303 302 301 300 299 299 298 298 297
306 307 307 307 307 308 307 307 307 308 309 309 310 311 312 313 314 313 313 313 314 314 312 310 309 310 311 312 313 314 315 317 318 318 318 318 317 315 314 313 312 312 311 310 309 307 306 306 307 308 307 306 305 303 302 301 300 299 299 298 297 297 296
306 307 307 307 307 307 305 304 303 303 303 304 305 306 307 309 310 311 312 313 313 313 312 309 308 307 307 308 308 309 311 313 315 317 317 316 316 314 313 312 312 311 310 308 307 305 305 306 307 307 305 304 303 302 301 300 299 299 299 298 297 297 296
307 307 307 307 306 305 304 302 301 301 301 300 300 301 302 304 307 309 310 311 311 312 311 309 307 305 305 306 307 308 309 311 314 315 315 315 315 313 312 311 311 309 307 306 305 305 305 305 305 304 304 303 302 301 300 300 299 299 299 298 297 296 296
307 307 307 306 305 304 304 304 303 303 302 301 300 299 300 301 304 307 309 310 311 311 311 310 308 306 306 307 308 309 310 312 314 314 314 314 313 312 311 310 309 307 306 306 305 305 305 304 303 303 302 301 301 301 300 300 299 298 298 297 296 296 295
306 307 306 306 306 306 305 305 304 303 303 303 302 301 300 300 302 304 307 309 310 311 311 310 309 309 308 309 309 310 311 312 313 313 312 312 311 310 310 309 307 306 306 306 306 305 304 303 302 302 301 301 300 300 299 298 297 297 296 296 295 295 294
306 306 306 306 306 306 306 305 304 304 305 304 304 304 302 300 300 301 304 307 309 310 311 311 311 311 311 310 310 311 312 312 312 311 311 311 310 309 308 307 307 307 306 306 305 304 304 303 302 301 300 299 298 297 297 296 296 295 295 294 294 294 294
306 306 306 305 305 305 304 305 305 305 305 305 305 305 303 302 300 300 302 306 309 310 311 311 312 312 311 311 310 311 312 312 311 310 310 309 308 308 307 307 306 306 305 304 304 303 303 302 301 299 298 297 296 296 295 295 294 294 294 294 294 294 293
305 305 305 305 305 305 305 305 305 306 305 305 305 305 304 302 301 301 303 306 309 310 311 311 312 311 311 311 310 309 311 311 310 309 309 308 307 307 307 306 305 304 303 302 302 301 301 300 298 297 296 295 295 294 294 294 294 294 294 294 293 293 293
305 306 306 305 305 305 305 305 305 305 305 305 305 305 304 303 302 303 306 308 310 310 310 311 311 311 311 310 309 308 308 309 309 309 308 307 306 306 305 305 304 303 302 301 300 299 298 297 295 294 294 294 294 293 293 294 294 294 293 293 292 292 292
305 305 305 305 305 305 305 305 305 304 304 304 305 304 304 305 304 305 308 309 310 310 310 310 310 311 310 309 308 307 306 306 307 307 307 305 304 303 303 302 301 301 300 299 298 296 295 294 293 293 293 293 294 294 293 293 293 293 292 292 292 291 291

ECMWFFLT1_850_thetae_027.txt.gz
Theta_e
313 309 307 307 307 306 306 306 308 312 315 315 315 316 317 318 319 319 319 321 322 322 322 322 322 322 322 321 319 316 316 323 325 325 326 325 325 326 326 326 327 326 326 325 325 324 323 324 325 325 325 325 324 324 325 325 323 322 322 323 323 323 323
316 310 307 307 306 306 307 306 307 310 313 315 316 316 317 318 319 318 318 318 320 321 321 322 321 321 319 317 315 312 312 320 325 325 325 325 326 326 326 326 326 326 325 324 323 323 322 322 323 324 324 322 320 321 323 324 323 322 322 322 322 322 322
315 310 307 307 307 306 306 306 306 307 310 312 314 315 316 318 318 318 318 317 317 317 318 319 317 314 311 308 307 307 311 319 323 324 325 325 325 325 325 326 326 326 325 324 323 323 323 322 322 323 321 317 317 319 321 322 322 322 322 321 321 321 321
312 309 308 307 307 306 306 306 306 306 307 308 309 312 315 317 317 317 316 313 310 309 310 310 308 307 305 304 303 305 312 319 321 321 321 322 324 324 325 325 325 325 325 324 323 323 323 323 323 322 319 315 314 316 319 319 318 319 319 318 319 320 320
309 308 308 307 307 307 306 306 306 306 306 306 307 309 312 315 314 312 310 307 305 305 305 305 305 306 306 305 305 306 310 313 312 311 311 312 315 318 321 323 324 324 324 323 323 322 322 321 320 320 319 316 314 315 317 317 317 317 317 316 317 318 319
309 308 308 308 307 306 306 306 306 306 306 306 306 307 309 311 310 307 306 305 306 306 306 306 306 306 306 306 306 306 307 307 306 306 306 306 307 309 313 317 319 321 321 320 318 316 315 312 310 311 314 315 313 313 316 317 317 317 318 319 319 319 319
308 308 308 308 307 306 306 306 306 306 306 306 306 306 306 307 307 306 306 306 306 306 306 306 306 306 306 306 306 306 306 305 305 305 305 306 306 306 307 309 311 312 312 310 309 307 306 305 305 305 306 309 309 310 314 316 316 317 318 319 320 320 320
308 309 308 308 307 307 306 307 306 306 306 306 306 306 306 306 306 306 306 306 306 306 306 306 306 306 306 305 305 305 305 305 305 305 305 305 305 305 306 305 305 305 305 304 304 303 303 303 304 304 304 306 307 309 313 314 315 316 317 318 318 318 319
309 308 308 308 307 307 307 307 307 306 306 306 306 306 306 306 306 305 306 305 306 306 306 306 305 305 305 305 305 305 305 305 305 304 304 304 304 304 304 304 303 303 303 303 303 302 303 302 303 302 302 305 307 310 313 314 314 315 316 316 317 317 317
311 308 309 309 308 308 307 307 307 307 307 306 306 306 306 306 306 306 306 306 306 306 306 306 306 305 305 305 305 305 305 304 304 304 304 303 303 303 303 303 303 303 303 303 303 303 303 303 303 303 302 303 304 306 310 311 311 311 311 311 313 314 314
312 310 311 310 308 308 308 307 307 307 307 307 307 306 306 306 306 307 307 307 307 307 307 307 307 307 306 306 306 306 306 306 306 305 305 305 304 304 304 304 304 304 304 304 304 304 304 304 303 303 304 303 303 303 304 306 307 307 306 306 306 307 309
314 312 310 310 309 309 309 309 308 309 308 307 307 307 307 307 307 307 307 308 308 308 308 308 308 308 307 307 307 307 307 308 307 307 306 307 307 306 306 306 306 306 306 306 306 306 305 305 305 305 305 305 304 304 304 304 305 306 305 303 303 303 303
316 313 310 311 311 311 311 311 311 312 312 310 309 309 309 308 308 308 308 309 309 309 309 309 309 309 308 308 308 308 308 308 308 308 307 307 307 307 307 306 306 306 306 306 306 306 306 306 306 306 306 305 305 305 305 305 305 305 304 304 304 303 303
317 313 312 312 311 311 313 314 314 315 316 315 314 313 312 312 312 312 312 311 311 311 311 311 311 310 310 310 309 308 308 308 308 308 308 307 307 307 306 306 306 306 307 307 306 306 306 306 306 306 306 306 306 306 306 306 305 305 305 304 304 304 303
319 315 314 312 310 311 315 317 316 317 317 317 316 315 315 316 316 315 316 315 314 314 313 313 312 312 312 313 312 311 310 309 309 308 308 307 307 307 307 306 306 307 307 307 307 307 307 306 306 306 305 305 306 306 306 306 306 306 305 305 305 305 305
319 317 316 315 311 311 316 319 319 319 319 318 318 317 317 317 318 316 317 317 317 317 317 316 316 316 316 316 316 315 314 313 312 311 310 309 308 308 308 307 307 307 308 308 308 308 309 308 308 307 306 306 306 306 306 306 306 306 306 305 305 306 306
319 319 317 317 314 312 316 320 319 320 320 319 319 319 318 319 318 317 316 316 316 317 318 319 319 318 318 318 318 317 317 316 315 315 314 313 312 312 312 311 309 308 308 309 309 310 311 312 311 310 309 308 306 306 305 305 305 305 305 306 305 305 306
319 319 318 318 316 313 316 318 319 319 319 319 319 319 318 318 318 317 315 316 316 317 317 318 319 319 319 319 319 319 318 318 318 317 316 316 315 315 315 314 313 311 310 311 311 311 313 313 313 313 312 311 309 307 306 305 304 304 304 304 305 305 306
318 320 318 318 316 314 314 316 319 318 317 318 319 318 318 317 318 319 318 317 318 317 318 318 319 320 319 319 319 319 319 319 318 318 318 318 317 317 316 316 315 314 313 313 313 313 313 314 314 313 313 312 311 309 307 306 304 304 303 303 304 304 305
319 319 317 318 318 318 315 315 318 319 318 318 318 318 317 317 318 319 319 319 319 319 319 319 320 320 320 320 320 319 319 319 319 319 318 318 318 317 317 316 317 316 315 314 314 313 313 313 313 313 313 312 311 310 309 307 305 304 303 303 303 304 305
317 317 317 318 319 320 317 317 319 319 318 318 318 318 317 317 318 319 319 318 318 318 319 319 319 319 319 319 319 319 319 319 319 319 318 318 318 317 317 317 317 317 316 316 315 314 313 312 312 313 312 312 311 311 310 309 307 305 304 304 305 305 306
317 317 318 317 318 318 318 318 318 317 317 317 317 317 316 316 318 319 318 318 318 317 317 318 318 317 317 317 317 318 318 318 319 319 318 318 318 317 317 317 317 317 317 316 316 315 315 313 312 312 312 312 311 311 311 310 309 307 306 305 305 305 305
319 319 318 317 317 318 319 319 318 318 317 317 317 317 316 317 318 318 318 318 318 318 318 318 317 317 317 317 317 317 317 317 319 319 318 318 317 317 317 317 317 317 316 316 315 315 314 313 311 311 311 311 311 310 310 310 309 308 306 305 304 304 304
319 319 319 318 318 318 318 317 317 316 315 315 316 317 317 317 317 317 318 318 318 319 318 318 318 319 319 319 319 318 318 318 319 319 318 318 318 317 317 317 317 316 315 315 315 314 313 311 310 310 310 310 310 310 310 310 309 307 305 304 304 303 303
316 315 315 314 314 313 313 313 313 313 314 314 316 317 316 317 317 317 317 318 318 318 317 317 317 318 318 319 320 320 319 319 319 319 319 319 319 318 318 317 317 316 315 315 314 313 312 311 310 310 310 309 309 309 309 309 308 306 305 305 304 303 302
312 312 311 311 311 311 312 313 313 314 315 315 316 317 317 317 317 316 316 316 317 317 316 315 314 313 314 315 317 319 320 320 320 319 319 319 319 318 318 317 317 316 315 314 313 313 312 311 311 310 309 309 308 308 308 308 307 306 306 305 303 303 302
309 310 309 309 310 310 311 311 312 312 313 314 315 315 315 315 314 313 313 313 314 314 314 313 312 311 310 311 312 313 315 316 317 317 318 318 318 318 317 317 317 316 315 314 313 312 312 312 311 310 308 308 307 307 307 307 307 306 305 304 303 303 302
307 307 307 307 307 308 308 309 309 310 310 311 311 312 311 311 311 311 311 311 311 310 310 311 312 310 309 307 307 307 308 309 310 311 312 314 316 317 318 317 317 316 314 313 312 312 312 311 310 309 307 307 306 306 306 306 305 304 303 303 303 302 301
306 306 306 307 307 307 308 308 308 308 307 307 307 307 308 308 308 308 308 309 307 307 308 310 311 309 307 305 304 305 305 306 306 307 308 311 314 316 317 316 316 314 312 312 312 311 311 310 309 307 306 306 306 306 306 305 304 303 302 302 302 301 300
306 306 306 307 307 307 307 307 306 304 303 303 303 303 303 304 303 303 303 303 302 303 304 306 308 307 306 305 305 305 305 306 307 307 308 310 312 314 315 315 314 312 311 310 311 311 310 309 307 306 305 305 306 306 304 304 303 302 301 301 300 300 299
306 306 306 307 307 306 305 305 304 303 302 302 301 301 301 300 300 300 300 302 302 303 304 306 307 308 308 307 306 305 305 305 306 306 307 310 312 313 314 314 313 311 310 310 310 310 309 307 306 305 305 306 305 304 303 302 302 301 300 300 299 299 298
306 306 306 306 306 306 305 305 306 305 305 304 303 303 302 302 301 300 300 301 302 303 306 308 309 310 310 309 309 308 307 307 306 306 308 310 311 312 312 312 312 311 310 310 310 308 307 307 306 306 306 305 304 303 302 301 300 300 299 299 298 297 296
306 306 306 306 306 307 307 307 306 306 305 305 304 304 304 304 302 301 300 300 300 302 305 307 309 310 310 311 311 311 310 309 308 308 309 310 310 310 311 311 311 310 310 309 308 307 306 306 305 305 304 303 302 301 300 300 299 298 297 296 295 295 294
306 306 306 306 306 306 306 306 305 304 305 305 306 306 306 305 304 303 301 300 300 300 302 305 308 310 311 312 312 311 311 310 309 309 309 309 309 309 309 309 309 308 308 307 307 306 306 305 304 303 302 301 301 300 300 298 297 296 295 294 294 293 293
305 305 305 305 305 306 305 305 304 304 305 306 306 306 306 305 305 304 302 301 301 301 303 305 308 310 311 312 312 311 311 310 310 309 309 309 308 308 308 308 307 306 306 306 305 305 304 304 303 302 301 301 300 299 297 296 295 294 293 293 293 293 293
304 304 304 305 305 305 305 305 304 305 305 305 305 305 305 304 304 303 303 303 303 303 304 307 309 310 310 311 311 311 310 310 308 308 308 308 308 307 307 307 307 306 305 305 304 303 303 302 301 300 299 297 296 295 294 294 293 293 293 293 293 293 293
304 304 305 305 305 305 305 305 305 304 304 305 304 304 304 304 303 303 304 304 304 304 304 306 308 308 309 309 309 309 309 308 307 306 306 306 306 306 306 305 305 304 302 302 302 301 300 299 298 296 295 294 293 293 293 293 293 293 293 293 293 293 293

ECMWFFLT1_850_thetae_030.txt.gz
Theta_e
314 311 308 307 307 306 306 306 306 307 311 314 316 316 317 318 318 319 319 321 322 322 322 322 322 322 320 319 317 313 315 322 324 324 325 325 325 325 325 325 326 326 325 325 325 324 324 325 324 323 323 322 323 324 324 325 324 323 322 322 323 323 324
315 313 309 307 307 306 306 306 306 307 309 313 316 316 316 318 318 318 317 319 320 321 321 321 321 320 316 315 313 310 314 322 324 324 325 325 325 326 325 325 324 325 325 324 324 324 324 323 320 319 319 318 320 322 322 324 324 323 322 322 323 323 323
314 312 309 307 307 307 306 306 306 306 307 310 313 314 316 318 317 316 316 315 316 318 319 318 316 313 309 307 307 310 317 322 324 324 325 325 325 325 325 325 325 325 325 324 323 323 323 322 318 315 316 317 318 319 320 321 322 323 322 322 322 322 322
313 310 309 308 307 307 306 306 305 305 306 307 309 312 315 317 317 315 313 310 309 311 312 310 308 306 304 303 305 311 317 320 320 320 321 323 324 324 324 324 324 324 323 322 322 322 322 322 319 316 315 316 317 318 318 319 319 319 319 320 321 321 322
314 310 308 308 307 307 306 306 305 305 306 305 307 310 313 316 316 311 307 305 305 306 306 306 305 305 305 304 305 308 310 311 310 310 311 314 318 321 322 323 323 323 322 321 321 321 320 319 318 317 315 315 316 317 318 319 319 319 319 319 320 321 321
315 311 308 308 307 306 306 305 305 305 306 305 306 309 312 314 313 308 305 305 306 305 306 306 306 306 306 305 305 305 306 305 305 305 305 306 309 312 315 317 318 318 317 316 314 313 311 310 309 312 314 315 315 316 317 317 317 318 319 319 320 321 321
317 311 308 308 307 307 306 306 305 305 305 305 306 308 311 311 309 306 305 306 306 306 306 306 306 306 305 306 306 306 306 305 305 305 305 305 305 306 306 307 308 308 308 307 306 305 305 305 304 306 309 312 314 315 315 315 315 316 316 317 318 320 322
318 311 307 308 307 306 306 306 305 305 306 305 306 307 308 308 306 305 305 305 305 306 306 305 305 305 305 305 305 305 305 305 305 305 305 305 305 305 305 304 304 304 303 303 303 303 303 303 304 304 305 309 312 314 314 314 315 315 314 313 314 317 320
318 311 308 308 307 307 306 306 306 306 305 305 305 306 306 306 305 305 305 305 305 305 305 305 305 304 304 304 304 304 304 304 304 304 304 304 304 304 304 303 303 303 303 303 303 303 303 303 303 303 303 307 310 312 312 312 312 312 312 311 312 313 314
317 310 308 308 307 307 307 307 307 306 306 306 305 305 305 305 305 305 305 305 306 306 305 305 305 305 304 304 304 304 304 304 304 304 304 303 304 304 304 304 304 304 305 305 305 305 305 304 304 303 303 304 307 311 312 310 308 309 309 309 309 309 308
316 311 309 308 307 308 308 308 307 307 306 306 306 306 305 305 305 305 305 305 305 305 305 305 305 305 305 305 305 305 306 305 305 305 305 305 305 305 306 306 306 307 307 307 307 307 306 306 305 304 304 303 304 307 310 309 307 306 305 305 305 306 305
315 312 311 309 308 309 309 309 307 307 307 307 306 306 306 306 306 306 306 306 306 306 306 306 306 306 306 305 305 305 306 306 306 306 306 306 306 306 306 306 306 307 307 307 307 307 307 307 306 306 306 305 304 304 305 307 306 304 304 304 303 303 303
314 314 313 311 310 309 309 309 307 307 307 307 307 307 306 307 307 307 307 307 307 307 307 307 307 306 306 306 306 306 306 306 305 306 306 306 306 306 306 306 306 306 306 306 306 306 306 307 307 307 307 306 306 306 305 305 305 304 304 304 304 304 304
314 316 316 314 311 309 309 309 307 308 309 308 308 308 308 308 308 308 309 309 309 309 309 309 308 308 308 307 307 306 306 306 306 306 306 306 306 306 306 306 306 306 306 307 307 307 307 307 307 307 307 307 306 306 306 306 305 304 304 304 304 304 304
314 316 317 317 314 312 312 311 308 310 312 311 312 313 312 312 312 313 313 313 314 314 313 312 311 311 311 310 310 309 308 307 307 306 306 306 306 306 306 306 306 306 307 307 308 308 308 308 308 308 308 308 308 308 307 307 306 305 304 304 304 304 305
316 315 317 319 317 315 314 312 308 310 314 315 316 316 316 315 315 316 316 317 318 317 317 316 316 315 315 315 315 314 313 312 310 310 309 308 307 307 308 308 307 307 307 308 308 309 310 311 311 312 312 312 312 312 310 309 307 306 305 305 305 305 305
320 316 316 319 319 316 314 310 308 311 315 317 318 318 318 318 318 318 318 318 317 317 317 317 318 318 317 317 317 317 317 316 315 315 314 313 312 310 310 310 309 308 307 308 309 310 311 313 313 314 314 313 313 313 312 310 309 307 306 305 305 305 305
321 317 315 319 319 317 314 310 310 314 317 318 319 319 319 319 319 319 318 317 316 315 315 317 318 317 317 318 319 318 318 318 318 318 317 317 316 315 315 314 312 310 309 308 309 311 312 313 314 314 314 313 313 313 312 311 310 309 307 306 305 305 305
319 316 316 319 319 318 316 313 312 315 317 318 317 318 319 319 319 319 317 316 315 315 316 317 318 316 316 318 318 318 318 318 318 319 318 318 318 317 317 316 316 314 312 311 311 311 312 313 314 314 314 313 313 313 312 312 312 311 310 309 307 306 306
317 316 318 320 319 318 317 315 313 314 316 316 314 314 316 317 318 318 317 314 315 316 316 316 316 316 316 317 318 318 319 319 319 319 318 318 318 318 318 317 317 317 316 315 313 313 313 313 314 314 314 313 313 313 312 312 312 312 312 311 310 309 308
317 316 316 318 319 318 318 317 315 313 314 316 315 314 315 315 316 317 317 316 316 316 317 316 316 316 317 318 319 318 318 318 319 319 319 318 318 318 318 317 317 317 317 316 316 315 314 313 314 314 314 313 314 313 312 311 311 311 311 311 311 310 310
320 317 316 317 319 319 318 319 318 316 316 316 316 316 315 315 315 315 315 316 317 317 317 317 318 318 318 319 319 318 317 317 317 318 318 318 318 318 318 318 317 317 317 317 316 315 314 313 313 313 312 312 312 312 311 311 311 311 310 310 310 310 310
320 319 318 318 318 318 319 319 320 319 318 317 317 317 317 316 316 316 316 316 316 318 318 318 318 318 318 318 318 317 317 317 317 317 317 317 317 317 318 318 318 317 317 317 316 315 314 313 313 313 312 311 311 310 310 310 310 309 309 308 308 309 309
320 319 319 318 317 318 319 319 319 319 319 319 318 318 317 317 317 317 317 316 317 318 318 318 319 319 319 319 318 318 317 317 317 317 317 317 317 317 318 318 317 317 317 317 316 315 315 314 313 313 313 311 310 310 310 310 309 308 308 308 308 308 308
319 319 319 318 318 318 319 318 318 319 319 318 318 317 315 315 316 316 317 317 318 318 318 319 319 318 318 317 317 318 318 318 319 318 318 318 318 318 318 318 318 317 317 317 316 315 314 314 313 311 310 310 310 310 310 309 308 308 307 307 307 307 307
319 319 318 318 318 318 318 318 317 317 316 315 315 314 314 315 315 316 317 317 317 317 318 318 317 316 314 313 313 313 314 315 316 317 318 318 318 319 319 319 318 318 317 317 316 316 315 313 312 310 310 310 310 310 309 308 307 307 306 306 306 306 305
315 315 315 315 314 314 314 314 314 314 313 313 314 314 315 315 315 316 316 315 315 315 315 315 314 313 313 312 311 310 308 308 309 310 311 312 313 315 316 316 317 317 317 317 317 317 315 313 311 310 310 310 310 309 308 307 306 306 306 305 305 305 304
310 310 310 310 310 311 311 312 312 312 312 312 312 313 313 313 313 313 313 312 311 311 311 311 311 311 312 311 310 307 305 304 304 304 305 306 307 308 309 312 315 316 317 317 317 316 314 312 311 310 310 310 309 308 307 306 305 305 305 305 305 304 303
308 308 308 308 308 309 309 310 310 310 309 309 309 309 310 310 310 310 310 309 309 309 309 309 309 309 310 310 309 307 305 304 304 304 304 305 305 306 307 310 314 316 317 316 315 313 312 311 310 310 310 309 309 307 306 305 305 305 305 304 304 303 303
307 307 307 307 307 308 308 308 308 308 307 307 306 306 306 305 305 305 305 306 306 307 307 307 308 308 308 309 309 308 307 306 305 304 304 304 305 307 310 312 314 315 315 314 313 311 310 310 309 309 309 308 307 306 306 305 305 304 304 304 303 303 302
306 306 306 306 307 307 307 307 307 306 305 304 303 303 302 302 301 301 301 301 302 302 303 304 305 306 307 309 310 310 309 309 307 306 305 304 305 307 310 311 312 313 313 312 310 309 308 308 308 309 308 307 306 305 304 304 304 304 303 303 302 302 300
306 306 306 306 306 307 307 307 306 305 304 304 303 303 302 302 302 302 301 301 301 301 301 301 302 303 305 308 309 309 310 310 310 309 308 307 306 306 307 309 311 311 310 309 308 307 308 308 308 308 307 305 305 304 304 304 303 303 302 301 300 299 297
306 306 306 306 307 307 307 307 306 305 306 305 304 303 303 303 303 303 302 302 301 301 301 300 300 301 303 306 308 309 310 311 311 310 309 308 307 306 306 307 308 309 309 308 308 308 308 308 307 306 305 304 304 303 303 303 303 302 301 300 298 296 295
306 306 306 306 306 306 306 307 307 306 306 306 304 304 304 303 303 303 303 303 302 301 300 300 300 300 302 305 308 309 311 312 311 310 310 309 308 308 307 307 307 307 308 308 308 307 307 306 305 304 304 303 303 303 303 302 302 301 300 298 296 294 293
305 305 306 306 306 306 306 306 306 306 306 305 304 304 304 304 304 304 304 304 303 302 301 300 300 301 302 305 308 310 311 311 311 310 309 309 308 308 308 307 307 306 306 306 306 305 305 304 304 303 303 302 302 302 302 301 300 298 297 295 294 293 293
304 304 305 305 305 305 305 306 306 306 305 304 304 304 304 304 304 304 304 304 304 303 302 301 301 301 303 306 308 309 310 310 309 309 308 307 307 307 306 306 306 305 305 305 305 304 303 303 302 302 302 302 302 301 300 298 296 295 294 293 293 293 293
303 303 304 304 304 304 305 305 305 305 305 305 304 304 304 304 304 304 304 304 304 303 303 302 302 302 303 304 306 307 308 308 307 307 307 306 306 305 305 305 304 304 303 303 303 303 302 302 302 302 301 300 299 297 295 294 293 293 293 293 293 293 293

ECMWFFLT1_850_thetae_033.txt.gz
Theta_e
308 308 307 307 307 306 307 308 311 311 310 309 309 311 314 316 316 316 318 321 322 322 322 322 321 320 320 319 317 314 316 321 324 325 325 325 326 326 326 326 326 326 326 326 325 326 326 325 323 323 324 323 324 324 324 324 325 325 323 323 324 323 322
308 308 308 307 307 307 306 307 310 312 310 308 309 313 316 317 316 316 317 319 321 321 321 321 321 321 320 318 316 313 314 319 323 325 326 325 325 326 325 325 325 325 325 325 325 324 324 323 321 321 320 320 321 322 323 323 325 325 323 322 323 323 323
309 309 309 307 307 306 306 306 308 309 309 308 310 313 315 314 313 312 312 315 318 319 319 318 317 316 313 311 311 312 315 319 322 324 325 325 325 324 324 325 325 325 325 324 324 324 323 322 320 318 318 319 319 320 321 322 323 323 323 322 323 323 323
309 309 309 308 307 306 306 305 306 306 307 308 310 313 313 312 310 307 306 308 311 314 313 310 308 306 305 306 310 314 317 321 322 323 324 324 325 323 323 324 324 324 323 322 322 323 322 320 318 317 317 317 318 318 319 319 320 320 321 322 322 322 322
309 309 308 307 307 306 305 305 305 305 306 307 310 312 312 311 307 305 305 305 306 307 306 306 305 304 304 305 308 311 313 314 314 315 317 318 322 323 323 324 323 323 322 322 322 322 322 320 318 316 316 316 316 316 318 319 319 319 320 319 320 321 321
311 309 308 307 306 306 306 305 306 305 305 307 309 310 310 309 306 305 306 305 305 306 305 306 306 305 305 305 305 306 306 306 306 306 307 309 313 317 318 319 319 319 318 317 316 316 317 317 318 317 316 316 315 315 316 317 317 318 319 319 320 321 321
316 310 307 307 307 306 305 306 306 305 305 306 308 309 308 307 305 305 305 305 306 306 305 305 305 305 306 305 305 305 305 305 305 305 305 305 306 307 308 308 309 308 307 307 306 307 307 308 314 317 316 315 315 314 313 314 314 314 316 319 320 320 321
319 313 308 307 306 306 306 305 305 305 305 306 307 307 306 306 305 305 305 305 305 305 305 305 305 305 305 305 305 305 305 305 305 305 305 305 305 304 304 304 303 303 303 303 303 303 304 303 307 313 316 315 314 313 312 312 312 312 312 314 317 319 320
320 314 308 307 307 306 306 305 305 305 305 305 306 306 306 305 305 305 305 305 305 305 305 304 304 304 304 304 304 304 304 304 304 304 304 304 304 303 303 303 303 303 303 303 303 302 303 303 303 307 313 314 314 313 313 312 312 311 310 309 310 313 315
321 314 308 308 307 306 306 306 305 305 305 305 305 305 305 305 305 305 305 305 305 305 305 305 304 304 304 304 303 303 303 303 303 303 303 303 303 303 304 304 304 305 305 304 304 304 303 303 302 303 307 311 313 313 313 313 311 310 309 308 307 308 308
322 317 309 307 307 307 309 310 309 308 305 305 305 305 305 305 305 305 305 305 305 305 305 305 305 304 304 304 304 304 303 303 303 303 304 304 304 305 305 306 306 306 306 306 305 305 304 304 303 303 303 306 309 312 313 312 310 307 306 305 304 304 303
322 318 310 307 307 308 310 312 313 310 307 306 306 306 306 306 306 306 306 306 306 306 306 306 306 305 305 305 304 304 304 304 304 304 304 305 305 305 305 306 306 307 307 307 307 306 305 305 305 304 304 303 305 309 311 311 309 306 304 303 303 303 302
322 319 312 308 308 309 309 311 311 310 307 307 307 306 307 307 307 307 306 307 307 307 307 307 307 306 306 306 305 305 305 304 305 304 305 305 305 305 305 305 306 306 307 307 307 307 307 306 306 305 305 304 304 306 307 309 308 305 304 304 304 303 303
321 319 314 310 309 309 309 309 310 308 308 308 307 307 307 307 307 307 308 308 308 308 308 308 308 308 307 307 307 306 306 306 305 305 305 305 305 305 305 305 305 306 307 307 307 307 307 307 307 307 307 306 306 306 305 305 305 305 304 304 304 303 303
321 319 315 312 310 310 309 309 309 308 307 308 307 307 308 308 309 310 310 311 311 312 312 312 311 311 310 309 309 310 310 309 307 307 306 306 305 306 306 306 306 306 307 307 307 308 308 310 310 311 311 311 311 310 308 307 306 305 304 304 303 303 303
321 318 316 315 313 312 310 309 309 308 308 309 308 308 309 311 313 314 314 315 316 316 316 316 316 315 314 313 313 313 313 313 311 310 309 309 308 307 308 308 307 306 307 308 308 309 311 313 313 314 314 314 314 313 312 311 309 307 306 305 304 304 304
322 319 316 317 317 317 313 311 311 310 308 309 311 312 312 313 315 317 317 317 318 318 317 317 317 317 317 316 315 316 316 316 315 313 312 312 311 311 311 311 310 308 307 308 309 311 312 313 314 315 314 314 314 314 313 313 312 311 310 309 308 308 307
323 321 318 318 318 319 318 315 314 312 309 309 311 313 314 316 317 318 319 318 318 318 317 315 315 316 318 318 317 316 317 317 317 316 315 313 313 313 313 313 313 312 309 308 309 311 312 313 314 315 314 314 314 313 313 313 313 312 312 312 311 311 311
323 323 322 321 320 319 319 318 316 313 310 309 311 312 313 315 315 315 318 319 319 318 317 315 315 316 317 317 316 315 315 316 317 318 317 315 315 315 315 315 316 315 313 311 310 310 310 312 313 313 314 314 314 314 314 313 313 312 312 311 311 311 311
324 324 323 323 321 319 318 319 318 315 311 310 313 315 314 313 312 312 315 317 318 318 316 315 314 315 316 316 316 315 315 315 316 317 317 317 317 317 317 317 316 316 315 313 312 311 311 311 311 312 312 313 314 314 314 314 313 312 312 311 310 310 309
324 322 321 320 320 318 318 319 319 317 314 312 313 316 316 315 313 312 313 314 316 317 316 315 315 316 316 317 317 317 317 317 316 317 317 318 318 318 318 318 317 317 315 313 313 313 311 310 310 309 310 311 312 313 313 313 313 312 311 311 310 309 308
323 321 318 317 318 318 318 320 319 318 317 315 314 315 316 316 315 314 313 313 315 315 314 315 316 316 317 317 318 318 318 318 318 318 317 317 317 318 318 318 318 317 315 314 315 315 314 313 312 310 309 310 310 310 311 311 312 311 310 310 309 308 308
322 321 319 318 317 317 318 319 319 318 318 317 315 315 317 317 316 315 315 314 314 314 314 314 315 317 317 318 318 317 317 318 317 317 317 317 317 317 317 317 317 317 316 316 317 316 315 315 314 313 312 311 311 311 311 310 311 310 310 309 309 308 307
321 321 320 319 318 318 318 319 319 319 318 318 318 318 318 318 317 316 316 316 316 316 315 315 316 316 317 317 318 317 317 318 318 318 318 318 317 317 317 317 317 317 317 317 317 316 315 314 313 314 313 312 312 313 312 311 310 310 310 309 308 308 307
320 320 320 320 320 319 319 319 319 319 319 319 319 319 319 319 318 318 317 316 317 317 317 316 316 317 317 318 317 317 317 317 317 318 318 318 318 318 318 318 318 318 317 318 317 316 315 314 313 313 313 313 312 312 311 311 310 310 309 309 308 307 306
319 319 319 319 319 318 318 318 319 319 319 319 319 319 319 318 317 316 314 315 316 317 316 317 317 318 317 317 315 314 313 313 313 313 314 315 316 316 317 318 318 318 318 318 317 317 316 315 314 313 313 313 311 310 310 310 310 309 309 308 307 306 306
317 318 319 319 319 319 319 318 318 319 318 318 318 317 315 315 315 314 314 315 316 317 317 317 317 317 316 315 314 312 311 309 308 307 307 308 308 309 311 312 314 315 316 317 317 317 317 316 314 313 312 312 310 310 310 310 309 308 307 307 306 305 305
312 314 315 316 316 316 317 316 316 316 315 315 315 314 313 314 315 315 315 316 315 315 314 314 314 314 313 312 312 310 308 306 304 303 303 303 304 304 305 306 307 309 311 314 316 316 317 316 313 312 312 310 309 310 310 310 309 307 306 305 304 304 304
307 309 310 310 310 311 312 313 313 313 312 312 312 312 313 313 313 313 313 313 312 311 310 310 310 310 310 311 311 309 307 306 305 305 304 303 303 303 303 304 305 306 308 312 314 314 315 315 312 310 310 309 309 309 309 308 307 306 305 305 304 303 303
306 306 307 307 307 308 309 309 311 311 310 309 309 309 309 309 309 309 309 309 309 308 309 309 309 309 309 309 309 308 308 307 308 307 306 305 304 303 303 304 307 309 311 313 314 314 314 313 311 310 309 308 308 308 307 307 306 305 304 303 303 303 303
306 305 306 306 306 307 307 308 308 308 307 306 306 305 305 304 304 304 304 304 304 304 304 305 305 306 307 307 307 308 308 309 309 309 309 308 307 305 305 305 308 311 312 313 313 313 312 311 309 308 307 307 308 307 306 305 304 303 303 302 302 302 302
306 306 306 306 306 307 307 307 307 306 305 304 304 304 303 302 302 302 302 302 301 302 301 301 302 302 303 304 305 307 309 309 310 310 310 309 309 307 306 305 306 307 308 308 309 309 309 308 307 306 307 307 306 305 304 303 303 302 302 302 302 301 301
306 306 306 306 306 306 307 307 307 306 305 304 304 304 304 303 303 303 303 302 302 302 302 302 301 301 301 301 302 305 308 310 310 311 311 310 309 308 307 306 306 306 305 306 307 308 307 306 306 306 306 305 304 303 303 302 302 302 302 302 301 301 299
306 306 306 306 306 306 306 307 307 307 306 306 306 305 305 304 303 303 303 303 303 303 303 302 302 301 301 300 300 303 307 309 310 311 310 310 309 308 307 307 307 307 306 306 307 306 306 305 305 304 304 303 303 302 301 301 301 302 302 301 300 298 296
306 306 306 306 306 306 306 306 307 307 307 307 307 306 305 304 304 304 304 303 303 303 303 303 303 302 301 300 300 303 306 309 310 311 310 309 308 307 306 306 306 306 306 305 305 305 305 304 304 303 303 302 302 302 302 301 301 300 299 297 296 295 294
306 306 307 306 306 306 306 306 306 307 306 307 306 305 305 304 304 304 304 304 303 303 303 303 303 303 302 300 301 303 306 309 310 310 309 308 307 306 306 305 305 305 305 304 304 304 304 304 303 303 302 302 302 302 301 300 298 296 295 294 294 294 294
303 304 306 306 305 305 305 306 306 306 306 306 305 305 304 305 305 305 304 304 303 303 303 303 303 303 303 302 301 302 304 307 309 308 307 306 306 305 305 304 304 304 304 303 302 302 302 302 302 302 302 302 301 299 297 295 294 294 294 294 294 294 294

ECMWFFLT1_850_thetae_036.txt.gz
Theta_e
314 309 308 307 307 307 306 311 313 310 312 317 318 319 319 319 319 319 319 319 320 320 319 319 319 321 322 320 320 323 323 324 325 328 329 328 329 328 328 328 328 327 326 327 327 324 325 326 325 325 325 324 324 324 325 325 325 326 325 324 324 324 324
309 306 308 306 306 307 306 309 314 313 311 314 317 317 318 319 318 319 320 320 321 321 322 321 321 322 323 322 322 321 321 321 323 326 328 328 328 329 328 328 328 327 326 326 326 325 325 326 326 325 324 323 322 323 324 324 325 325 324 323 324 324 323
308 307 308 306 307 308 307 307 310 314 315 315 315 314 315 316 316 317 319 319 319 320 320 318 317 320 322 321 319 318 319 321 322 323 325 326 326 327 327 328 327 327 327 326 327 327 326 326 325 325 324 323 322 322 322 322 322 323 323 322 322 323 323
308 308 307 306 307 309 310 309 310 313 317 315 313 311 310 309 309 311 315 316 314 314 311 310 313 316 318 317 316 317 320 322 323 323 325 325 324 325 326 328 327 327 327 327 327 326 325 324 324 323 322 321 321 320 320 320 319 319 320 320 319 321 322
308 308 307 306 307 308 308 309 309 311 314 313 311 309 306 305 305 306 308 309 308 307 306 307 312 315 316 316 316 316 317 319 321 321 323 323 324 324 325 326 326 325 325 325 325 325 324 323 323 321 320 319 319 318 318 318 317 316 316 316 316 318 319
309 307 308 306 307 307 306 308 311 314 314 313 311 308 305 306 306 306 306 306 306 306 306 306 307 311 315 315 312 310 310 310 311 313 314 317 320 322 323 323 322 322 322 322 323 324 324 323 322 321 320 319 319 318 318 317 316 315 314 314 315 315 316
313 308 307 306 306 306 305 306 311 314 314 311 308 307 306 305 306 306 306 306 306 306 306 306 305 306 312 315 310 307 306 305 306 306 307 308 311 314 316 316 315 314 315 316 317 320 321 322 321 321 320 319 319 318 317 317 316 315 313 313 313 314 316
317 309 307 307 306 305 305 305 307 310 310 308 306 306 305 305 306 306 306 305 305 305 305 306 306 305 307 310 308 305 305 305 305 305 305 305 305 305 306 307 308 307 308 309 311 314 317 319 320 319 319 318 317 317 316 315 315 314 312 312 312 313 316
319 312 307 307 306 305 305 305 305 306 306 306 305 306 305 305 306 305 305 305 304 305 304 304 305 305 305 306 306 304 305 304 304 304 304 304 304 303 303 304 306 306 304 306 308 308 310 314 318 318 317 317 317 316 316 315 315 313 311 311 311 311 314
321 315 308 306 307 305 304 305 305 305 305 305 305 305 305 305 306 305 305 305 304 304 304 304 304 304 304 305 304 304 304 303 303 303 303 303 303 303 303 304 306 307 305 305 305 304 304 308 314 317 317 317 316 316 316 316 315 313 311 310 308 307 308
322 318 311 307 306 305 305 305 305 305 305 305 305 305 305 305 305 305 305 305 306 305 305 304 304 304 304 304 303 303 303 303 304 303 304 305 305 305 305 306 308 307 306 305 304 304 303 304 308 312 314 315 316 316 315 315 316 314 311 309 306 305 304
322 320 313 307 306 307 308 309 307 305 305 305 305 305 305 305 305 306 306 306 306 306 306 305 305 305 305 304 305 304 304 304 305 305 305 306 306 306 306 306 307 306 306 306 306 306 305 306 309 310 310 312 314 315 315 314 315 314 310 307 304 303 302
322 322 316 308 306 309 311 311 309 306 305 305 305 305 305 306 306 306 306 306 306 306 307 306 306 306 305 305 306 306 305 306 307 306 305 306 306 307 307 307 307 306 307 308 307 307 307 307 309 309 309 310 310 312 314 315 314 312 308 305 304 303 304
321 322 319 311 307 309 310 309 307 307 306 306 306 306 306 306 306 307 307 307 307 307 307 307 307 307 307 307 307 306 306 307 310 308 306 306 306 306 307 307 307 307 307 308 308 308 308 308 308 309 309 309 309 310 312 313 312 309 305 305 305 304 304
321 322 320 314 308 308 309 309 308 307 307 307 306 307 307 307 307 307 308 308 308 309 309 309 309 308 309 309 308 308 307 308 310 309 307 309 308 307 307 307 307 307 307 308 309 310 310 310 310 309 309 309 310 310 311 311 311 309 306 305 305 305 305
322 321 320 317 311 308 309 309 309 308 307 307 307 307 307 308 308 308 309 310 311 311 312 313 313 313 312 312 311 312 311 309 309 309 310 312 311 309 309 310 308 307 307 308 309 311 312 312 311 311 312 312 311 311 312 312 311 310 308 308 307 306 308
324 322 320 318 314 310 308 308 309 308 307 307 307 308 308 308 308 309 310 311 312 313 315 316 317 317 316 315 315 315 315 314 312 312 313 314 314 313 313 313 312 309 308 308 309 310 313 314 312 312 313 313 313 314 313 312 311 311 309 310 309 308 309
325 324 321 318 316 314 311 310 309 308 309 309 309 308 309 309 310 311 313 313 312 313 316 318 316 316 317 317 317 317 317 317 317 316 316 316 315 315 314 315 315 313 311 310 311 311 312 313 312 311 311 310 311 314 314 312 311 311 311 310 311 311 310
325 324 321 318 317 317 316 314 312 309 310 311 312 311 311 312 312 314 315 316 315 313 314 316 316 315 315 317 318 318 317 317 316 316 316 317 317 316 316 316 316 314 313 313 313 312 311 310 310 309 310 310 310 313 314 313 311 311 311 311 311 311 310
325 324 322 319 318 318 319 319 316 313 311 312 313 313 313 313 314 316 317 318 318 316 314 315 317 317 315 315 316 316 316 316 315 315 315 316 317 317 317 317 317 316 315 314 313 312 310 309 309 309 309 310 310 312 313 312 311 312 312 312 311 310 310
325 325 324 322 321 320 320 321 320 318 315 313 313 312 313 314 314 316 317 317 316 316 316 318 318 318 316 315 315 317 317 317 317 317 316 316 316 317 318 318 318 318 317 316 315 314 313 312 312 311 310 309 310 311 311 310 311 312 311 312 311 310 310
325 324 325 325 324 322 322 322 321 320 318 317 315 313 312 315 317 317 317 317 314 314 316 318 318 317 317 316 316 317 318 318 318 318 318 317 317 318 318 318 318 318 318 318 316 316 315 314 315 314 312 311 312 311 310 310 310 311 311 312 312 311 311
324 324 324 323 322 322 322 322 321 319 319 319 318 316 314 315 317 318 318 318 316 315 315 316 316 316 315 315 315 316 318 318 318 318 318 318 318 318 318 318 318 317 317 317 317 317 315 315 316 315 314 314 313 311 311 311 310 311 311 312 311 311 310
323 323 323 322 320 320 320 320 319 319 320 320 319 319 317 316 316 317 319 319 317 316 315 315 315 315 314 314 314 316 317 318 317 317 317 318 319 319 319 319 319 318 317 317 317 317 317 316 316 315 315 314 313 312 312 310 309 310 310 311 310 310 309
322 322 322 322 321 320 320 319 319 319 320 320 320 320 319 318 318 318 319 319 318 317 317 317 317 316 315 314 315 316 317 317 316 316 316 317 319 320 320 320 319 319 318 318 318 317 317 316 316 315 315 314 313 313 312 310 309 309 310 310 310 309 309
321 321 321 321 321 321 320 320 320 320 320 320 319 319 319 318 318 318 319 319 317 317 317 317 318 317 316 316 316 317 317 316 315 315 315 314 315 316 317 318 318 318 317 316 317 319 318 317 316 316 315 314 312 312 311 311 310 309 309 310 310 308 308
318 319 320 320 320 321 320 320 321 320 320 319 318 318 318 318 318 317 317 316 316 316 317 317 317 317 317 318 317 317 316 315 315 314 312 310 309 309 310 311 312 314 314 312 313 315 317 317 316 315 314 313 312 311 311 310 309 309 310 310 309 307 306
312 313 315 316 318 319 319 319 318 317 317 317 317 317 316 315 315 315 315 315 316 317 317 317 317 318 318 318 317 315 313 312 312 311 307 304 303 303 303 304 305 307 309 309 308 310 313 316 316 314 313 312 312 311 310 310 309 309 309 309 307 306 305
309 308 309 311 312 313 313 314 313 313 314 313 313 313 313 312 312 313 314 315 317 317 315 315 315 315 316 315 313 311 310 309 310 308 304 302 302 301 302 302 303 305 307 308 307 307 311 315 315 314 313 312 311 310 308 308 308 308 308 307 306 306 305
308 308 308 308 310 310 310 309 311 312 312 312 312 313 313 313 313 313 313 314 315 314 312 312 311 310 311 310 309 309 310 311 312 309 305 305 305 303 303 302 303 304 305 305 306 308 312 314 314 313 312 310 309 308 307 307 307 307 307 306 306 305 304
308 309 308 308 309 308 307 307 309 311 312 312 312 311 311 311 311 312 312 312 312 311 310 310 310 309 309 308 307 310 312 313 313 311 308 308 307 306 305 304 304 303 304 306 309 311 314 314 312 310 309 308 307 306 306 307 306 306 306 305 304 304 303
307 308 309 309 308 308 307 307 308 310 311 311 310 309 308 307 307 307 306 306 306 305 305 306 306 306 307 307 307 310 313 313 313 312 311 310 309 308 307 306 305 305 306 307 308 310 312 312 310 308 308 307 306 306 306 306 305 304 304 303 303 303 303
306 307 308 309 308 308 309 309 308 307 308 309 307 306 305 305 304 302 302 302 302 302 302 302 302 302 303 303 303 306 311 313 313 312 312 310 310 309 308 307 306 306 305 305 305 306 308 309 308 308 307 306 305 306 306 305 304 303 303 303 303 303 302
306 306 307 308 308 308 308 308 308 307 308 308 308 306 305 306 304 302 302 302 302 302 302 302 303 302 302 302 301 302 308 313 313 312 311 310 309 309 308 307 306 306 305 305 305 305 306 306 307 307 306 305 305 305 304 304 304 303 303 302 302 300 299
305 306 306 306 307 307 308 308 307 307 308 308 308 306 306 306 305 303 303 303 303 303 303 303 304 303 303 303 301 301 304 308 309 309 311 310 309 308 307 307 306 305 305 305 305 305 305 305 305 305 305 304 304 304 303 303 303 302 301 299 298 297 297
302 304 305 306 306 307 308 309 308 307 308 307 306 305 306 306 305 304 304 304 304 304 304 304 304 304 303 303 303 302 302 303 305 308 309 309 308 307 307 306 305 305 304 304 304 304 304 304 304 304 304 303 303 303 303 302 301 299 297 296 296 296 296
299 300 302 303 305 305 306 308 309 309 308 307 307 306 306 306 305 305 305 304 304 304 304 304 304 303 303 303 303 302 302 303 306 309 309 308 307 307 306 305 304 304 304 304 303 303 303 302 302 302 302 302 301 301 299 297 296 296 295 295 296 296 296

ECMWFFLT1_850_thetae_042.txt.gz
Theta_e
326 326 325 325 324 321 319 320 321 323 325 325 324 324 322 322 323 324 325 325 324 323 323 322 323 323 323 323 324 325 325 324 325 325 325 326 326 326 325 325 325 326 327 327 328 327 326 326 327 327 327 326 325 325 324 324 324 323 323 323 323 322 321
328 325 321 322 320 317 319 322 324 325 325 324 324 325 324 323 323 323 324 324 324 323 323 323 321 321 323 323 323 324 325 325 324 324 325 325 326 326 325 326 326 326 326 326 327 327 326 326 327 326 326 325 325 325 324 324 323 323 323 324 323 322 322
327 321 318 317 315 319 324 325 324 324 324 324 324 323 324 324 323 322 323 323 323 323 323 323 322 322 322 322 322 322 324 324 324 324 325 325 327 326 326 326 326 325 325 325 326 326 325 325 326 326 325 323 323 323 323 322 322 321 321 322 321 321 321
324 318 318 315 313 319 324 323 322 323 324 324 322 321 321 323 323 323 322 322 322 323 323 323 323 322 321 320 320 320 322 322 322 324 325 326 326 325 325 325 324 324 325 325 325 325 324 324 325 325 324 322 321 322 322 321 320 320 320 319 318 319 320
318 314 317 313 312 318 322 322 324 325 324 322 318 316 316 319 320 321 321 320 321 323 322 321 321 319 319 318 318 317 318 318 320 323 325 325 324 323 323 323 323 324 325 324 324 324 323 323 324 324 323 321 320 320 320 320 319 320 320 318 317 317 319
313 311 313 312 315 320 322 324 325 324 323 321 317 314 316 318 319 319 318 315 316 318 319 319 319 317 317 317 315 313 313 314 315 318 322 323 322 320 320 320 321 322 322 322 323 323 323 323 323 323 322 321 319 319 318 318 318 318 319 318 317 317 319
309 310 312 315 319 322 322 324 324 323 323 321 315 313 315 315 315 315 313 309 309 311 315 318 319 318 317 315 311 308 308 308 309 310 315 318 318 317 317 317 317 318 318 319 321 323 323 322 321 322 321 320 319 318 317 316 316 316 316 317 317 318 318
309 311 317 319 321 323 321 322 324 324 323 320 313 311 311 309 307 308 307 306 307 307 311 315 316 315 313 310 308 307 307 308 306 306 309 313 315 315 315 314 314 315 316 317 319 321 321 321 320 319 320 320 318 317 315 314 314 314 315 316 316 316 315
311 314 320 320 320 321 321 322 323 323 322 318 312 309 308 306 306 306 305 306 306 307 310 311 310 310 307 306 307 308 308 308 307 306 306 309 312 315 316 315 313 313 314 316 318 320 319 319 319 319 318 317 317 316 314 313 313 313 313 314 314 314 313
313 315 320 318 316 319 321 323 323 322 321 317 310 308 307 306 307 306 305 305 306 308 311 309 307 306 305 305 306 305 305 306 305 305 305 307 310 313 315 314 312 311 311 311 315 318 318 318 318 318 318 317 317 317 315 313 312 311 310 311 311 312 310
315 316 317 312 311 316 321 323 322 321 319 315 309 307 306 307 307 305 305 304 305 308 310 308 306 305 304 305 304 305 305 305 305 306 306 306 308 310 311 311 311 312 310 308 310 314 314 315 315 315 316 317 317 317 316 314 313 311 309 308 308 309 308
318 315 313 309 308 312 318 321 321 320 318 313 308 305 305 306 305 304 304 304 305 306 307 306 305 305 305 306 306 307 307 307 308 309 309 309 309 309 309 309 311 314 312 310 310 312 313 313 313 313 314 316 317 317 316 315 313 311 309 308 307 307 307
321 316 311 308 308 310 316 320 320 319 316 312 308 305 305 305 304 304 305 305 305 305 305 306 306 307 308 308 308 309 310 311 311 310 312 313 313 312 310 309 310 313 314 313 312 312 313 313 313 313 314 314 316 317 317 316 313 310 309 308 307 307 307
323 319 313 309 308 311 316 318 317 314 313 312 308 305 306 306 305 305 306 306 307 307 308 308 308 308 309 309 309 310 311 313 311 310 312 313 312 312 312 311 310 310 312 313 314 314 314 314 313 314 314 314 315 316 316 316 313 310 308 307 308 308 308
324 322 318 311 309 312 315 314 312 310 311 312 311 310 311 310 308 307 307 308 308 309 309 309 309 309 309 309 309 309 311 313 311 310 311 312 311 310 311 310 310 309 310 313 315 315 315 315 314 314 315 315 315 315 315 315 314 312 310 309 309 309 310
324 324 322 316 311 311 311 311 310 308 310 311 312 316 316 313 312 312 311 310 309 309 309 309 309 309 309 309 309 309 309 310 310 309 309 312 313 312 311 310 309 309 309 311 314 314 315 315 315 315 315 315 315 315 315 315 314 313 313 311 310 310 311
324 325 324 319 315 312 310 310 309 310 314 314 314 318 317 315 316 316 315 315 312 310 310 309 309 309 309 309 309 309 310 311 312 312 312 314 316 316 315 314 313 312 310 309 311 313 314 315 316 315 315 316 316 315 315 315 315 314 314 313 312 312 312
325 326 324 320 319 317 313 311 310 311 318 319 316 318 317 315 316 317 317 318 316 314 312 310 309 309 309 309 310 312 313 315 316 316 316 317 317 317 317 317 318 316 314 312 313 315 315 315 315 315 315 315 315 315 315 315 315 315 315 314 314 313 313
325 327 325 321 322 320 317 317 314 312 318 320 318 319 319 316 317 317 316 317 317 317 316 315 313 313 313 312 313 315 316 317 317 316 317 317 317 317 317 318 319 319 317 316 315 316 315 314 315 314 314 315 314 314 315 315 315 315 315 315 315 314 314
326 327 325 323 323 321 319 319 317 315 319 320 318 319 319 317 317 317 317 317 317 317 318 318 318 318 318 318 318 318 318 319 318 317 317 317 317 317 316 316 317 318 318 317 316 315 315 315 315 314 314 314 313 314 314 315 315 315 315 315 315 315 314
327 326 326 325 323 321 320 320 318 316 319 320 319 319 319 318 317 316 317 318 317 317 318 318 319 319 320 320 320 319 320 320 319 319 318 319 319 319 318 318 318 318 318 317 316 316 316 316 315 314 314 314 314 315 315 315 315 315 315 315 315 315 314
327 326 326 324 321 320 321 321 319 317 317 318 319 319 319 319 318 317 317 317 318 318 318 318 319 319 319 319 319 320 321 321 321 320 320 320 320 319 319 319 319 318 318 318 317 317 317 317 316 315 315 315 315 315 315 315 314 314 315 315 315 315 314
326 326 326 324 323 322 323 323 321 319 319 318 319 319 319 319 318 318 318 318 318 319 318 318 319 318 319 320 320 321 322 321 320 319 318 318 317 316 318 320 318 317 318 319 318 318 318 317 317 316 316 316 316 315 315 315 314 314 314 315 315 315 314
325 326 325 325 325 324 324 324 323 321 321 320 319 319 319 319 318 318 319 319 319 320 319 319 318 317 317 318 319 320 320 320 319 318 317 317 317 316 317 319 317 316 318 320 319 318 317 317 317 317 317 316 316 316 316 315 315 315 314 314 314 314 314
324 325 325 324 324 324 324 324 323 323 323 322 321 320 319 319 319 318 319 319 319 320 320 320 319 317 317 316 316 318 320 320 319 318 317 316 317 316 316 316 316 316 318 319 319 318 317 317 317 317 317 317 317 316 316 316 316 315 314 314 314 314 314
322 323 324 323 323 324 323 323 323 323 322 322 321 320 320 320 320 319 318 318 319 320 320 320 319 318 317 316 315 316 318 319 318 317 317 316 316 317 316 316 317 316 316 318 318 316 315 316 317 317 317 317 317 316 316 316 316 315 314 313 313 313 313
320 320 322 322 322 323 323 323 323 322 321 320 320 319 319 319 319 318 318 317 319 320 320 319 318 317 317 316 315 316 317 318 317 317 317 316 316 316 317 317 317 315 315 317 316 312 311 312 315 317 318 317 316 316 316 315 315 315 314 313 313 312 313
316 316 318 319 319 320 321 322 321 320 319 319 318 317 318 317 317 317 317 318 319 319 318 318 317 317 317 316 316 317 317 317 317 316 316 315 316 316 316 316 316 315 315 316 315 312 309 309 311 313 314 314 314 314 315 315 314 314 314 313 312 312 312
313 313 314 315 315 316 318 319 319 319 318 317 316 315 316 315 314 314 315 317 319 319 318 317 317 317 318 318 318 317 317 317 316 315 315 315 315 316 315 315 315 315 315 315 314 312 309 308 309 308 309 311 310 309 312 314 314 313 313 312 312 311 310
313 313 313 313 314 313 314 316 317 318 318 318 317 316 316 315 314 313 312 313 316 318 318 317 317 318 318 317 317 317 317 317 315 315 315 315 314 314 315 315 314 314 313 314 313 312 310 309 308 305 306 309 308 307 310 313 313 313 312 312 311 310 309
312 312 313 313 313 313 313 313 314 315 316 317 317 317 318 318 317 316 315 314 315 316 316 316 316 316 316 316 317 317 317 316 314 314 315 314 314 314 313 313 313 313 313 313 312 311 309 308 308 306 307 309 308 307 308 310 311 311 311 310 310 309 308
310 311 312 312 313 313 313 313 313 313 314 315 315 316 317 317 317 317 317 316 314 314 315 315 314 314 314 316 317 317 315 314 314 315 314 313 313 313 309 307 309 310 310 309 307 306 305 306 308 309 309 309 308 307 307 308 308 308 308 308 308 307 307
308 308 310 310 311 312 312 312 313 313 313 314 314 315 315 316 316 316 315 315 314 313 314 314 313 313 314 314 315 314 312 312 314 315 314 313 313 311 307 304 305 305 304 304 304 303 303 305 307 309 310 310 309 309 309 309 308 308 308 307 307 306 306
307 307 307 307 308 308 309 310 311 312 313 313 313 313 313 314 314 313 313 313 313 312 313 313 312 312 311 309 309 308 307 311 314 314 314 314 313 311 309 306 304 304 303 303 304 303 303 304 307 310 311 311 310 310 310 309 309 309 308 307 306 305 303
303 303 303 303 304 305 306 307 308 310 312 313 313 312 312 312 312 312 311 312 312 312 311 310 310 311 310 308 307 305 304 310 314 314 313 313 312 312 311 308 305 305 304 304 304 304 303 303 306 309 310 310 310 309 309 308 308 307 306 306 304 303 302
300 300 300 301 301 302 303 304 305 306 308 310 311 312 312 312 311 311 310 310 310 311 310 309 308 308 308 307 307 305 304 308 312 313 313 313 312 312 311 308 306 305 305 305 305 304 303 302 304 308 310 310 309 308 307 307 306 305 304 303 302 301 301
300 301 302 302 302 302 303 304 304 305 306 308 309 311 312 312 311 311 311 310 310 310 309 309 308 306 304 303 304 304 302 304 309 313 312 312 312 312 310 310 308 306 305 306 305 304 302 302 303 306 308 308 307 306 305 304 303 303 302 301 300 300 300

ECMWFFLT1_850_thetae_045.txt.gz
Theta_e
317 319 322 323 324 323 322 322 323 322 324 323 320 319 318 318 322 325 325 324 323 322 322 324 325 325 324 324 325 324 323 324 325 325 324 325 326 325 326 326 326 326 326 326 327 326 326 326 325 325 326 326 325 324 323 323 322 323 323 323 322 322 322
323 323 322 323 324 322 321 323 323 323 325 325 323 323 323 321 321 324 325 324 324 324 323 321 321 323 322 321 323 324 323 324 325 324 324 325 325 325 325 325 325 326 326 327 326 326 325 325 325 325 325 325 324 324 323 323 323 323 323 322 321 321 322
326 325 321 322 321 320 323 325 325 324 324 325 324 324 324 323 321 323 324 323 323 324 323 319 319 322 322 322 323 323 323 323 324 324 325 325 325 324 325 325 325 325 326 327 326 325 325 325 325 324 324 324 323 323 322 322 322 322 322 321 321 321 322
323 323 319 316 317 321 325 326 325 323 322 322 324 324 324 323 322 321 322 323 323 323 322 319 319 321 321 321 322 322 322 322 324 325 325 325 324 324 325 325 325 325 325 326 326 325 325 324 323 323 323 321 320 320 320 319 319 319 318 319 320 320 321
318 318 313 310 312 319 322 322 321 320 321 322 322 323 324 323 322 320 320 323 323 322 322 319 318 320 321 320 320 321 321 322 324 325 324 324 323 323 324 324 324 324 324 325 325 324 323 323 322 322 321 320 319 319 319 318 318 317 316 317 319 320 320
316 313 309 308 309 313 317 319 320 320 321 319 316 319 323 323 322 319 319 322 322 320 319 318 316 318 320 319 318 319 321 323 323 323 322 322 321 322 322 322 322 323 324 323 323 323 322 321 321 321 320 320 320 320 319 318 318 317 315 316 319 320 320
315 311 308 309 307 311 318 322 321 320 319 317 313 314 318 319 317 314 314 318 320 319 317 317 316 316 316 315 314 315 318 321 323 321 321 321 320 321 320 319 319 322 323 323 322 322 322 321 320 320 320 320 320 320 320 319 318 316 313 313 316 318 318
313 309 307 309 310 314 319 321 321 321 320 320 315 311 313 315 312 309 308 311 317 318 316 317 315 313 311 310 310 309 311 317 321 320 318 318 318 319 319 317 318 320 322 323 322 322 322 321 320 319 319 320 320 319 320 319 317 315 313 312 314 314 313
312 309 308 311 314 316 318 319 322 323 322 321 316 310 310 310 309 307 306 308 312 315 316 316 312 308 307 306 306 306 306 311 317 317 315 315 315 316 317 316 317 318 321 322 322 321 321 320 320 319 318 318 318 317 317 318 316 315 314 312 311 310 308
311 308 308 312 316 318 317 320 324 323 322 322 317 311 308 307 306 306 306 306 308 310 311 311 308 306 306 305 305 305 305 307 310 312 312 312 312 312 314 316 317 318 320 321 319 318 318 317 318 319 318 318 316 315 315 315 315 314 313 310 308 308 306
308 309 311 313 317 318 318 321 323 321 320 320 316 310 307 307 307 306 306 306 307 306 306 306 306 305 305 305 304 305 305 305 307 308 309 309 308 308 309 311 314 316 319 320 318 317 316 315 316 318 318 317 315 314 313 314 313 312 311 309 307 307 306
308 311 315 316 317 318 319 322 322 319 317 317 314 309 306 307 306 305 305 307 307 306 305 304 304 304 305 305 306 307 308 308 308 309 309 308 308 308 307 307 307 310 315 317 316 315 313 313 314 316 317 316 314 313 313 313 312 310 309 308 307 306 307
311 313 316 317 316 317 320 322 320 316 315 315 312 307 306 306 305 304 305 305 306 305 305 306 306 306 307 308 308 309 310 310 310 311 311 310 309 310 310 309 307 308 311 314 313 313 312 312 313 315 317 316 314 313 314 313 311 309 308 307 306 306 307
314 315 317 316 314 315 317 319 317 313 313 313 309 306 306 305 304 304 304 305 306 305 306 308 308 308 309 309 310 311 311 310 310 311 311 310 310 310 310 310 311 312 313 313 313 313 313 313 313 314 316 316 315 314 315 314 311 308 307 307 307 307 308
317 317 317 315 312 312 314 314 313 311 312 311 307 305 306 306 306 305 305 305 306 307 308 309 309 309 309 310 311 312 311 310 310 310 310 310 310 310 309 310 311 313 314 314 314 314 314 314 314 314 315 315 315 314 315 314 312 310 309 309 308 308 308
321 320 319 315 311 312 312 311 310 310 311 310 306 306 307 308 308 308 307 307 307 307 309 309 309 309 309 309 310 311 311 310 310 309 310 312 313 312 312 310 309 310 312 314 315 315 314 314 314 314 315 315 314 315 315 314 314 313 311 310 309 309 309
324 322 320 316 312 311 311 309 309 309 310 308 306 309 312 309 309 311 311 310 310 308 309 309 309 309 309 308 309 309 310 310 311 311 313 315 316 316 316 315 312 310 310 313 315 315 315 315 314 314 315 315 315 315 314 314 314 314 312 310 310 310 311
324 322 321 318 314 312 310 309 310 310 310 309 308 314 317 312 309 313 315 314 313 311 309 309 309 309 309 309 309 310 311 313 314 315 316 317 316 317 317 317 316 314 312 312 313 314 315 315 314 315 315 315 315 315 314 314 314 314 313 311 310 311 311
323 322 321 320 318 315 312 309 309 310 311 310 310 315 319 315 312 315 317 317 317 314 311 310 310 310 310 311 311 312 314 316 317 317 317 318 318 318 317 317 317 317 315 314 313 313 314 315 314 315 315 315 315 315 315 314 315 314 314 313 313 312 312
321 321 322 322 319 318 315 311 309 309 312 312 312 315 318 317 314 314 317 317 317 316 314 313 314 314 315 316 316 317 318 318 318 317 317 318 318 318 317 317 318 318 316 317 316 314 314 315 315 315 314 315 315 315 315 315 315 315 314 314 314 314 313
320 319 322 322 320 320 318 314 312 313 315 316 314 316 319 319 316 315 316 317 316 317 317 316 317 318 318 319 319 320 320 319 318 318 317 318 318 317 316 317 318 318 316 316 317 316 315 315 315 315 314 314 314 313 314 315 315 315 315 315 315 315 314
319 319 322 323 321 321 320 317 315 317 319 319 318 318 319 318 317 316 317 317 317 317 317 317 318 318 318 319 319 321 320 319 319 319 318 318 318 317 317 317 317 318 317 317 316 316 316 316 316 315 314 314 314 314 314 315 315 315 315 315 315 315 314
320 320 322 323 322 322 321 319 318 317 319 320 319 318 318 318 317 316 317 317 318 317 318 317 318 318 318 318 319 320 320 319 319 320 319 318 317 316 316 316 316 317 318 318 317 317 317 317 317 316 315 315 315 315 315 315 315 315 315 315 315 314 314
322 321 320 321 322 322 321 319 318 317 317 319 319 319 319 318 318 318 317 317 317 317 318 318 318 318 318 318 318 319 319 319 318 319 318 317 316 316 316 316 316 316 318 319 318 317 318 318 317 317 316 316 316 316 315 315 315 315 315 315 315 314 314
322 321 319 319 320 321 321 320 320 318 317 317 317 317 318 319 319 319 318 318 317 317 317 317 317 318 318 318 319 318 318 318 319 319 317 316 316 317 316 316 316 316 317 318 317 317 318 318 317 317 317 316 316 316 316 316 315 315 315 314 314 314 314
322 321 320 320 320 321 322 322 322 321 319 318 318 318 319 319 319 319 318 318 318 318 318 318 318 318 318 319 319 318 318 318 318 317 317 316 316 316 316 316 316 316 316 317 317 318 318 318 318 317 317 316 316 316 316 316 316 316 315 315 315 314 314
320 320 321 321 320 321 322 323 323 323 322 321 321 320 320 320 320 320 319 319 319 318 318 318 318 318 318 319 320 319 318 317 316 316 316 316 316 316 316 317 316 316 316 316 316 318 318 317 316 317 317 317 317 316 316 316 316 315 315 315 315 314 313
316 318 318 318 318 318 319 320 320 320 321 320 320 319 319 319 319 319 319 319 319 319 319 318 318 318 318 319 319 319 318 317 317 316 316 316 317 317 316 316 315 316 316 316 316 317 316 314 313 314 316 316 316 315 315 315 315 315 315 314 314 314 313
314 314 315 315 315 317 318 318 317 317 317 317 317 316 316 315 316 316 317 317 318 318 317 317 317 317 317 318 318 318 317 317 317 317 317 316 316 316 316 316 316 316 316 316 315 315 314 312 311 310 311 311 310 310 310 311 312 313 314 314 313 313 312
313 313 313 313 314 315 316 317 317 317 316 315 315 315 314 313 313 313 314 314 315 316 316 316 316 316 317 318 318 318 318 318 318 318 317 316 315 315 315 315 316 316 315 315 315 314 312 311 310 307 306 305 304 304 306 308 309 311 313 313 313 312 312
312 312 313 313 313 313 313 314 314 314 314 314 315 315 315 314 314 313 313 313 313 314 314 315 315 314 315 316 317 318 318 317 317 317 316 315 315 315 315 315 315 315 315 314 314 313 311 310 308 305 303 303 303 303 304 305 306 309 311 312 312 311 311
309 310 310 310 311 312 313 313 313 313 313 313 314 314 315 315 315 314 313 313 313 313 313 312 311 311 312 314 315 316 316 316 317 316 315 315 315 315 314 314 314 314 314 314 314 313 311 309 306 304 303 303 303 303 304 305 305 307 308 309 309 308 308
305 306 307 308 308 309 309 310 311 312 312 313 313 314 314 314 315 314 314 314 313 312 312 312 311 311 311 313 314 313 314 316 316 315 314 315 315 314 313 313 314 314 313 314 315 314 310 307 304 303 303 303 303 303 305 306 306 307 307 307 307 307 307
301 303 304 305 305 305 305 304 305 306 308 309 311 313 314 313 313 313 314 314 313 313 312 311 311 311 311 312 313 313 315 316 316 314 314 315 314 314 313 313 314 314 314 314 313 311 307 304 303 303 303 303 303 304 305 306 307 308 308 308 308 308 307
298 299 300 301 301 301 300 300 301 303 303 304 306 309 312 313 313 313 313 313 313 313 312 311 311 310 310 311 312 313 315 316 315 314 315 315 314 314 313 312 311 311 312 312 309 305 304 303 303 304 305 305 306 307 308 309 309 309 309 308 308 307 306
298 297 297 298 299 299 299 300 300 302 302 303 303 305 307 309 311 312 312 312 312 312 312 312 312 311 310 309 310 311 313 314 314 314 314 314 314 314 313 311 308 306 307 307 304 303 303 303 303 305 307 308 309 310 310 310 310 309 308 307 305 304 303
299 299 298 298 298 299 300 301 302 302 303 304 304 305 305 306 307 310 311 311 311 311 312 313 313 312 310 309 309 310 310 311 312 312 313 314 314 314 313 311 308 306 306 305 304 304 304 303 303 305 307 309 310 310 309 309 308 308 307 305 303 301 300

ECMWFFLT1_850_thetae_048.txt.gz
Theta_e
326 321 317 318 320 318 317 321 323 323 324 322 320 318 314 315 321 322 321 321 321 321 323 324 324 325 325 325 325 324 324 325 325 326 326 325 326 326 327 326 324 323 324 324 325 324 325 326 326 326 326 325 325 323 323 322 322 323 323 322 322 322 322
324 317 317 321 322 321 320 319 320 322 323 320 319 319 320 322 322 322 322 322 322 322 321 320 320 320 321 323 323 322 323 325 325 325 325 325 325 326 326 325 324 323 324 325 325 325 324 325 326 325 325 324 323 323 323 323 323 323 322 321 321 321 322
321 316 319 322 322 322 321 319 320 322 322 321 322 323 323 324 324 322 322 323 323 323 320 317 318 319 319 321 322 322 323 324 324 324 324 324 324 325 325 325 325 324 325 325 325 325 325 324 324 324 324 323 323 323 322 322 322 322 321 321 321 321 322
316 315 319 321 322 321 319 319 321 322 322 322 322 322 322 323 324 323 322 323 323 323 320 318 319 320 320 321 321 321 322 323 324 324 324 324 324 324 325 325 325 324 324 324 324 325 325 323 323 324 323 322 321 321 320 319 319 319 320 320 321 321 321
313 314 315 316 318 317 317 321 323 322 323 323 322 321 320 320 323 323 322 322 323 322 320 318 318 319 319 319 320 319 321 322 324 324 323 324 324 324 324 324 325 325 324 324 323 324 324 323 322 322 321 320 319 318 317 317 318 319 320 320 320 320 320
315 314 312 312 312 313 318 323 323 321 322 323 323 321 320 320 321 323 322 322 322 321 318 315 316 318 319 319 320 320 321 323 323 323 323 324 324 324 324 324 324 324 324 324 323 323 324 323 321 320 319 318 317 317 317 316 317 318 319 319 319 319 319
317 314 310 309 309 312 318 322 321 320 320 322 323 322 321 320 320 321 322 322 321 318 313 312 314 317 318 319 320 322 323 323 323 323 323 323 323 323 323 324 324 324 324 324 323 323 322 322 320 319 319 318 318 318 317 316 316 316 317 316 317 318 319
318 313 309 308 308 312 318 320 320 319 318 317 319 321 320 320 319 320 321 321 318 314 311 310 311 314 316 318 321 323 322 322 322 322 322 322 321 321 322 323 323 323 323 323 322 322 321 320 319 319 318 318 319 319 318 316 315 315 314 314 313 314 315
320 312 309 308 309 314 319 321 321 319 316 311 311 314 316 316 316 316 318 319 316 313 310 308 308 310 311 315 320 323 321 320 320 320 320 320 319 318 320 322 323 323 323 322 322 321 320 319 318 318 318 317 318 319 319 317 315 313 312 312 311 309 309
318 310 309 310 312 318 322 322 322 320 317 312 308 308 310 310 309 310 314 315 314 312 310 306 305 306 307 309 315 319 319 318 318 318 318 318 318 317 318 320 321 321 321 322 322 320 320 319 318 318 318 317 315 316 318 317 315 313 310 309 310 307 305
316 310 310 312 315 320 322 322 322 321 319 315 309 305 306 306 305 307 309 311 312 312 309 306 305 305 305 305 308 311 311 312 312 312 313 315 317 317 317 318 320 318 318 319 319 318 318 319 318 318 318 318 316 315 315 315 314 313 310 307 307 307 305
315 311 311 312 317 320 320 321 322 321 319 316 310 305 306 306 305 306 307 309 310 310 307 305 304 304 304 304 305 305 306 306 306 306 306 309 313 317 317 318 319 318 316 315 315 315 316 317 318 318 318 317 316 316 314 313 313 313 310 307 306 306 307
313 311 311 313 318 320 318 320 322 320 319 316 309 305 306 306 306 305 306 306 306 306 305 304 304 304 304 305 305 305 306 307 307 307 306 305 307 312 315 318 319 318 317 316 315 315 315 315 316 317 319 318 316 316 314 313 313 313 310 307 306 307 308
311 311 315 317 319 319 317 320 321 320 319 315 308 305 305 305 305 305 305 305 304 304 304 304 305 306 307 307 308 308 309 309 310 310 309 309 307 307 310 314 318 318 318 317 316 315 314 315 314 314 317 318 317 316 313 313 314 313 309 308 306 306 309
313 315 321 321 319 317 316 320 321 319 319 314 306 304 305 304 305 306 305 304 304 305 305 306 308 308 309 309 309 310 309 310 310 310 310 310 310 309 307 308 311 313 314 314 313 313 313 314 313 312 314 317 317 315 313 313 315 313 310 308 307 307 309
317 318 322 321 317 314 315 319 319 317 316 312 305 304 305 304 305 306 305 306 306 307 308 308 309 309 309 310 309 309 309 309 309 309 310 309 309 310 310 309 310 311 312 313 313 313 313 313 313 313 314 315 314 313 313 314 315 313 310 308 308 308 309
319 320 321 320 316 313 315 317 315 313 314 311 305 305 306 305 306 306 306 307 308 308 309 310 310 310 309 310 310 310 309 310 310 310 311 312 311 311 310 311 312 313 313 313 314 314 314 313 313 314 314 314 313 314 314 314 314 314 312 310 309 309 309
321 322 321 320 317 315 317 317 314 312 313 311 306 305 308 309 308 308 307 307 308 309 310 310 310 310 310 310 310 310 310 310 310 311 313 315 315 315 313 312 312 311 312 314 315 314 314 314 314 314 314 314 314 314 314 314 314 314 313 312 311 309 309
322 322 321 319 316 316 317 317 315 313 312 310 308 309 312 312 311 311 310 308 309 309 309 310 310 310 310 310 310 310 310 311 312 313 315 315 315 316 316 315 314 312 312 313 314 314 314 315 315 315 314 314 314 315 314 314 314 314 313 312 311 310 311
321 321 322 320 317 317 317 317 316 313 312 311 311 313 316 315 314 314 314 313 313 312 310 310 311 310 310 310 310 311 312 313 314 315 315 315 315 315 315 315 315 314 314 314 314 314 314 315 315 315 315 315 315 315 314 314 314 314 314 313 311 311 311
319 320 321 321 320 319 319 318 315 312 313 313 313 315 318 317 315 316 317 317 317 316 315 314 314 313 312 313 314 314 315 316 316 316 316 316 316 316 316 315 315 315 315 315 315 314 314 314 314 315 315 315 315 315 314 314 314 314 314 313 312 312 311
320 321 321 321 321 320 320 318 314 311 314 316 315 316 318 317 316 316 317 317 317 317 317 317 317 316 316 317 317 317 317 317 317 317 317 317 317 317 317 317 316 316 316 316 316 316 316 315 315 315 314 315 315 315 315 315 315 315 314 314 314 313 312
320 321 321 321 321 320 320 319 316 313 315 317 317 317 318 318 317 316 316 317 317 316 317 317 317 317 317 318 318 318 318 318 318 318 318 319 319 318 318 317 317 316 317 317 316 317 316 316 315 315 315 315 315 315 315 314 314 315 315 314 314 314 314
321 321 320 321 321 320 320 320 318 316 317 319 319 319 319 319 318 317 316 316 317 317 317 317 317 318 318 318 318 318 318 318 318 318 318 319 319 319 318 317 316 316 316 316 316 316 317 317 316 315 315 315 314 314 314 313 314 315 315 315 315 314 314
322 320 320 322 322 321 321 321 320 318 318 319 319 319 319 319 319 318 317 316 316 317 317 317 318 318 318 319 319 318 318 318 318 319 319 319 319 319 319 318 317 317 316 316 316 316 317 318 317 317 317 316 315 314 313 314 315 315 315 315 315 315 315
323 322 322 323 323 323 322 322 321 319 318 318 318 319 319 319 319 319 318 318 317 317 317 317 318 318 318 318 318 318 318 318 318 318 318 318 318 319 319 318 317 318 317 317 316 316 317 318 318 317 317 317 316 316 315 315 315 315 315 314 314 314 314
321 321 321 321 321 322 322 322 321 320 319 319 318 320 320 320 319 319 319 319 318 318 318 317 318 318 318 318 318 318 318 318 318 318 318 318 318 318 317 316 316 317 318 318 317 316 317 318 318 318 318 317 317 316 316 316 316 315 315 314 314 314 314
319 319 319 319 319 319 319 320 320 318 318 318 318 319 320 321 320 320 320 320 319 319 319 318 318 318 318 318 318 318 318 318 318 319 319 319 318 317 316 315 315 316 317 317 317 316 316 317 317 318 318 318 317 317 317 316 316 315 315 315 315 315 314
317 317 317 317 317 317 317 317 316 316 317 318 318 318 318 318 318 318 318 319 319 319 319 319 319 319 319 319 319 318 318 318 318 319 319 318 318 317 317 316 316 316 316 317 316 316 316 317 317 317 317 317 317 317 317 316 316 315 315 315 315 314 314
314 314 314 315 316 317 318 318 318 318 319 319 320 319 317 316 315 315 315 315 315 315 316 316 317 317 318 318 318 318 317 318 318 318 318 318 317 317 317 317 317 316 316 316 316 316 317 317 317 317 316 315 316 318 317 317 316 315 315 315 314 314 313
312 312 313 314 314 315 316 317 317 318 318 318 317 316 315 315 315 314 314 313 313 313 312 313 313 314 314 315 316 316 317 317 318 318 318 318 317 317 317 317 317 316 316 315 316 317 317 317 317 317 313 312 314 316 315 315 314 313 313 313 313 313 313
311 311 312 312 313 313 314 314 314 315 315 314 314 314 314 314 313 313 313 313 314 314 313 313 312 312 312 313 313 313 314 315 316 317 317 317 317 317 317 316 316 315 315 316 317 317 317 316 316 314 310 308 309 310 310 311 310 309 310 311 311 312 311
309 310 310 310 311 311 312 312 312 313 313 313 313 313 313 313 312 313 313 314 315 315 314 314 313 312 311 311 311 311 312 312 313 314 315 316 316 316 316 316 316 315 315 316 316 316 316 316 314 311 310 308 306 306 307 307 307 306 307 308 308 308 308
307 307 307 307 308 308 309 310 310 311 311 311 312 312 312 312 313 313 313 313 314 314 314 314 314 314 312 311 311 311 311 311 311 312 313 314 314 316 316 315 315 314 314 315 315 315 315 314 312 310 309 307 305 305 306 305 305 306 307 307 307 308 307
302 302 302 302 302 303 304 305 306 306 307 307 307 308 309 310 311 312 312 312 312 312 313 313 314 314 314 313 312 311 310 310 310 311 312 313 314 316 315 315 315 314 313 313 314 314 314 314 312 311 309 308 307 306 306 306 307 307 308 308 308 308 308
299 299 299 299 299 299 299 299 300 301 301 302 302 302 303 304 306 308 310 311 311 312 312 312 312 313 313 313 313 312 311 310 310 311 312 313 315 315 315 314 314 314 313 312 313 313 314 314 312 309 307 307 307 307 306 307 308 308 309 309 308 308 307
299 299 299 299 299 299 299 298 298 299 299 300 301 302 302 302 303 304 305 307 309 310 310 311 311 311 311 311 312 313 313 311 310 310 312 314 316 315 314 314 314 314 313 312 313 314 313 312 309 306 305 306 307 307 307 308 309 309 309 308 307 306 306

ECMWFFLT1_850_thetae_051.txt.gz
Theta_e
325 324 326 326 322 319 317 318 319 320 321 319 316 313 312 315 317 317 320 322 322 324 325 325 325 325 325 324 325 326 326 326 326 326 325 324 325 326 326 325 325 325 325 324 324 323 324 326 325 325 325 325 325 324 323 323 323 324 323 322 322 322 321
325 325 324 320 318 315 315 318 320 321 321 318 315 313 312 315 317 316 317 319 320 322 324 324 324 324 325 325 324 324 325 325 325 325 325 324 324 325 326 325 325 325 325 325 325 324 324 324 325 324 324 324 323 323 323 323 322 322 321 321 321 321 321
326 325 320 316 316 315 315 318 320 321 319 316 315 315 315 317 318 318 317 318 318 319 319 320 319 320 322 323 322 322 324 325 324 324 324 324 324 325 325 325 324 324 324 325 325 325 324 323 324 324 324 323 323 323 323 322 321 321 321 321 321 321 321
327 324 316 315 318 318 317 317 318 319 318 317 317 317 317 318 320 320 320 319 318 317 316 317 317 317 319 321 321 321 323 324 324 324 324 323 323 324 325 325 324 324 324 325 325 325 324 323 324 324 323 323 322 321 320 320 320 320 320 320 321 321 321
327 322 315 317 320 320 320 317 316 317 318 318 318 318 318 319 321 322 321 320 319 318 317 317 319 319 319 320 320 320 321 322 323 323 323 323 322 323 324 324 325 325 324 324 324 324 324 323 323 323 322 322 320 319 319 319 320 320 320 320 320 319 320
327 321 316 319 321 320 318 317 317 317 317 318 318 318 317 318 321 322 322 321 320 320 318 316 318 319 319 318 318 318 319 321 322 322 322 322 322 322 323 323 324 324 324 324 324 324 324 323 323 322 321 319 318 318 318 318 319 319 318 318 318 319 319
326 320 317 320 320 318 317 318 318 317 317 317 317 317 316 316 319 321 322 321 321 319 316 314 316 318 317 317 316 317 319 320 322 322 322 323 323 323 323 323 323 323 323 324 324 324 323 323 322 321 319 317 317 317 317 317 317 317 317 318 318 318 318
324 318 318 320 318 316 316 318 318 316 315 316 317 318 317 316 317 319 321 321 320 316 312 312 316 317 316 316 317 317 319 321 322 322 323 323 323 323 323 323 323 323 323 323 323 323 323 322 321 320 319 317 316 315 315 316 315 315 316 317 318 317 314
321 320 321 321 317 316 317 317 316 313 312 313 315 317 317 317 318 319 320 320 318 314 309 311 315 317 316 316 318 319 320 321 322 322 322 322 322 323 322 323 323 323 323 322 322 322 322 321 320 319 319 317 315 313 313 313 313 313 314 314 314 313 309
321 323 323 320 317 316 317 316 314 312 310 309 309 313 316 317 318 318 319 319 316 312 308 309 313 315 316 317 319 320 320 321 321 321 321 321 321 322 323 322 322 322 321 321 321 321 321 320 319 318 317 316 314 313 312 312 311 310 311 311 310 309 307
324 324 320 317 315 315 314 314 314 314 311 307 306 309 312 314 314 314 316 316 313 310 307 306 309 313 315 318 320 320 319 319 320 320 320 319 319 321 322 322 322 322 320 319 320 320 319 319 318 318 317 316 315 315 313 312 311 308 308 309 309 308 306
326 322 316 313 313 312 312 313 316 317 313 308 306 306 308 309 308 308 310 312 310 308 306 305 306 308 312 316 317 317 317 317 317 317 318 318 317 318 321 321 322 321 321 319 319 319 319 318 318 317 317 316 316 315 314 313 313 310 307 306 307 306 306
324 319 313 311 312 313 312 312 317 320 316 311 307 305 306 306 305 305 307 308 308 307 306 305 304 305 308 312 313 312 311 311 311 312 315 316 316 316 319 320 320 319 320 319 317 317 317 318 318 318 317 317 316 316 316 314 313 312 308 306 306 306 307
323 317 312 312 313 315 313 312 318 321 319 313 307 305 306 305 305 305 305 306 307 306 305 304 304 304 306 308 309 308 307 307 306 307 310 314 316 316 317 318 318 317 317 316 315 315 315 315 316 317 318 318 317 317 317 315 314 312 309 306 306 307 308
321 316 316 315 314 314 313 313 319 322 320 313 306 304 305 305 305 305 306 306 305 305 304 304 304 304 305 306 307 307 308 307 307 307 307 310 313 314 315 317 317 317 316 316 316 316 315 314 314 315 316 317 317 317 317 316 314 313 312 308 307 307 308
320 317 318 317 312 312 313 314 319 322 320 312 305 304 304 304 305 306 306 305 304 304 305 305 306 306 307 308 308 309 309 309 309 309 308 308 309 310 312 314 316 317 317 316 316 315 314 313 313 314 314 314 315 316 318 317 314 313 313 311 308 307 308
318 315 315 314 312 311 313 316 320 322 320 311 304 304 304 303 304 305 305 305 304 305 306 307 308 309 309 310 309 309 310 309 309 309 309 309 309 309 309 310 312 313 314 313 313 312 312 313 313 313 313 313 314 316 318 316 313 313 313 311 310 308 307
316 312 311 313 312 312 315 319 321 321 319 311 304 304 305 304 305 305 304 305 306 306 307 308 309 310 310 310 309 309 309 310 310 310 311 311 310 310 310 309 310 311 311 312 312 313 313 313 313 313 313 313 314 316 316 315 313 313 313 312 310 309 309
317 316 315 313 312 314 319 320 320 320 318 311 304 304 305 305 305 305 305 306 307 307 308 309 309 310 310 310 309 310 309 310 311 313 313 314 313 313 312 312 311 311 312 312 312 313 314 313 313 313 314 314 313 313 314 313 313 313 314 313 310 309 310
319 319 319 316 314 315 319 320 319 319 318 311 305 303 305 305 305 305 306 307 308 309 309 309 309 309 309 309 309 309 309 310 311 313 314 315 315 314 314 314 313 313 313 312 312 313 314 314 314 314 314 314 314 313 313 314 314 314 314 313 311 310 310
320 318 316 316 314 315 318 320 319 319 318 313 308 305 306 306 307 307 308 308 309 309 309 309 309 309 308 308 308 309 309 310 311 313 314 315 314 314 314 314 314 314 315 314 313 313 314 314 314 314 315 315 314 314 314 314 314 314 314 314 312 311 311
320 317 315 316 315 316 318 320 320 319 318 315 312 312 311 311 311 311 311 312 313 313 313 312 312 311 310 310 309 310 311 312 313 314 314 315 315 315 316 315 315 315 315 315 315 315 315 314 315 315 315 315 315 315 314 314 314 314 314 314 313 312 312
319 317 317 319 319 319 320 320 319 317 317 317 316 316 316 316 316 315 314 315 316 316 316 316 316 316 315 315 314 314 315 316 316 316 316 316 317 317 317 317 317 317 316 316 315 315 315 315 316 316 315 315 314 315 315 314 314 314 314 314 314 313 312
317 316 318 321 321 320 320 320 318 315 316 319 318 316 317 318 317 316 316 316 317 317 317 317 317 317 317 317 317 317 317 318 318 317 317 317 318 318 318 318 318 318 317 316 316 315 315 315 316 316 316 316 315 314 315 315 315 314 314 314 314 314 313
318 317 318 320 321 320 320 320 318 315 317 320 320 318 318 318 318 318 317 316 316 316 317 317 317 317 317 318 317 318 318 318 318 318 318 318 318 318 318 318 318 318 318 317 317 316 316 316 315 316 316 317 316 315 315 314 314 314 314 314 314 314 314
320 320 320 321 320 320 319 319 318 317 318 320 320 320 319 319 319 319 317 316 316 317 317 317 317 317 317 318 318 318 318 318 319 319 319 318 318 319 319 318 318 318 318 318 318 317 317 317 317 316 316 316 317 317 316 315 314 314 313 313 314 314 314
321 321 320 320 320 320 319 319 319 319 319 319 320 320 319 320 320 319 318 318 318 318 318 317 317 318 318 318 318 318 318 319 319 319 319 318 319 319 319 318 318 318 318 318 317 316 317 317 318 317 317 316 316 317 317 317 316 315 313 313 314 314 314
321 321 321 321 321 321 320 320 319 318 318 320 320 320 320 320 320 320 320 320 319 319 319 319 318 318 318 318 318 318 318 319 319 319 319 319 319 319 319 319 318 318 318 317 317 316 316 316 318 318 317 317 316 316 317 318 317 315 314 314 315 314 314
319 320 320 320 320 321 321 321 320 319 318 320 320 320 320 319 319 320 319 319 319 319 319 319 319 319 319 319 319 319 319 318 318 318 318 318 318 318 319 319 319 318 318 317 317 316 316 316 317 317 317 316 316 316 317 318 318 317 316 315 314 314 313
316 317 317 318 318 319 319 319 319 318 318 318 318 318 318 318 318 318 317 317 317 317 316 316 317 317 317 318 318 319 319 319 319 318 318 319 318 318 318 318 318 318 318 317 317 317 316 316 316 317 316 316 316 316 317 317 316 316 316 315 314 314 313
312 313 314 315 316 316 317 317 317 317 317 317 317 317 317 317 317 316 315 315 315 314 314 314 314 314 314 314 315 315 316 316 317 317 318 318 317 317 318 318 318 318 317 317 317 317 317 317 316 316 316 316 316 317 317 316 314 313 314 314 314 314 314
310 311 311 312 313 313 314 315 315 316 316 316 317 317 316 316 316 315 315 314 314 313 312 312 313 313 312 313 313 313 313 313 313 314 314 314 314 314 315 315 316 316 316 316 316 317 317 317 316 316 316 316 316 317 316 314 313 313 313 314 314 314 314
309 309 309 309 310 310 311 312 312 313 313 314 315 315 315 314 314 314 314 314 313 313 312 311 312 313 313 313 314 314 314 313 313 312 311 311 311 311 311 312 312 313 313 314 315 316 316 316 315 315 315 316 317 315 313 313 314 313 313 314 314 314 313
309 309 309 309 309 309 309 310 310 311 311 312 312 312 312 312 312 312 312 312 312 312 312 311 311 312 312 313 314 314 315 315 315 314 313 312 311 311 310 310 310 310 312 313 314 315 315 315 315 315 316 316 315 310 309 310 310 309 310 312 312 311 310
306 307 308 308 309 309 309 309 309 309 309 310 310 310 310 310 310 310 310 310 310 311 312 312 312 312 312 312 313 313 314 314 315 315 315 314 312 311 310 309 309 310 312 313 314 315 315 315 315 316 316 314 311 309 308 307 305 305 307 308 308 308 308
302 302 303 304 304 305 305 305 306 306 306 306 306 306 307 307 307 307 307 307 307 307 308 309 311 312 312 312 312 312 313 313 314 314 315 315 314 313 311 310 310 311 313 314 314 315 315 314 314 316 315 313 311 312 310 307 305 306 307 307 307 307 308
300 300 300 300 300 300 300 301 301 301 301 301 301 301 302 302 302 302 302 302 302 302 302 303 305 307 309 310 311 312 312 312 312 312 312 313 314 314 313 311 310 311 314 316 315 314 315 314 314 315 314 312 312 313 311 307 307 308 308 308 308 308 308

ECMWFFLT1_850_thetae_057.txt.gz
Theta_e
328 326 321 317 313 313 314 315 315 317 317 318 320 320 320 319 318 319 320 321 322 322 323 325 325 325 326 326 326 326 325 324 325 326 325 326 327 326 326 326 326 325 325 324 325 326 326 325 325 325 325 325 325 324 323 323 323 323 322 321 321 321 322
328 324 321 319 316 314 315 316 316 317 317 317 317 316 316 316 316 318 320 321 322 323 324 324 324 324 325 325 325 325 325 325 325 326 325 326 327 327 326 326 326 325 325 324 324 325 325 325 325 325 325 325 324 322 322 322 322 321 321 320 321 321 322
327 323 321 320 317 315 316 317 317 318 317 316 314 312 313 314 316 318 320 321 323 324 324 324 324 325 325 324 324 325 325 325 325 326 326 325 326 327 327 326 326 325 325 325 324 324 325 325 325 325 325 324 323 322 321 321 321 321 321 321 321 321 321
326 323 321 319 317 316 317 317 317 317 315 313 312 312 314 316 317 319 320 320 321 322 323 323 323 324 325 324 323 324 325 325 325 325 326 325 325 326 326 326 325 325 325 325 325 324 325 325 324 324 324 323 322 321 321 321 321 321 321 321 321 321 321
325 322 319 316 316 316 316 316 315 315 313 312 312 314 317 318 319 319 320 320 319 319 320 320 319 320 323 323 322 323 324 325 325 325 325 325 325 325 326 325 325 325 325 325 325 324 324 325 325 324 323 322 322 321 321 320 320 321 320 320 320 320 321
324 322 320 316 315 315 315 315 314 313 313 313 314 317 318 319 320 320 320 320 319 317 318 318 318 319 321 321 321 322 323 324 324 324 324 324 324 324 325 325 324 324 325 325 325 325 324 324 324 324 323 322 321 320 319 319 320 320 320 319 319 319 319
325 323 319 316 316 316 315 314 313 314 314 314 316 317 317 319 320 321 320 320 318 316 318 319 319 320 319 319 320 322 323 323 323 323 323 323 323 323 324 325 325 324 325 324 324 324 324 324 324 323 322 321 320 318 317 318 318 317 317 318 318 317 317
326 325 319 317 318 317 316 315 314 314 315 315 316 316 316 318 320 321 321 319 315 312 315 318 318 318 318 317 319 321 322 322 322 322 323 323 323 323 324 324 325 325 325 324 324 324 324 323 323 321 320 320 319 318 317 316 316 316 317 317 317 316 314
327 326 320 319 319 317 317 316 314 315 316 317 317 317 316 316 318 320 320 317 312 308 312 315 316 317 317 317 319 321 322 322 322 322 322 322 323 323 323 324 324 324 324 324 323 323 323 323 321 317 316 318 317 318 318 317 316 316 317 317 316 314 311
328 326 321 320 319 317 319 318 314 313 314 317 318 318 316 314 315 317 318 316 310 307 309 314 316 316 317 319 321 322 322 322 322 321 320 321 322 322 323 323 323 324 323 323 323 322 322 322 320 315 314 315 314 314 317 318 316 315 316 314 311 309 306
328 326 322 320 318 317 319 318 313 311 311 315 318 318 317 315 313 314 314 314 310 306 308 313 315 316 317 320 321 321 321 321 320 319 319 321 322 322 323 323 323 323 322 322 321 321 320 321 318 314 314 314 312 312 314 316 316 314 314 313 308 306 304
328 326 322 320 317 317 318 315 312 311 309 310 313 316 317 315 313 311 311 311 309 306 307 312 315 315 317 319 320 320 319 319 319 319 319 320 321 322 322 322 321 321 321 320 320 319 318 319 317 314 315 316 315 313 313 314 314 311 311 311 308 305 304
327 325 322 321 318 316 316 314 313 312 309 307 308 311 314 314 312 309 308 309 308 305 307 312 314 314 314 316 317 317 316 315 316 317 318 318 320 321 321 320 319 319 319 318 318 318 317 318 317 315 316 317 317 316 314 315 315 310 308 309 308 305 305
326 324 323 322 318 315 315 315 315 313 310 307 306 307 309 310 309 306 306 307 307 305 306 310 313 312 312 313 314 314 313 312 312 314 316 317 318 319 320 320 320 318 318 318 317 317 317 317 317 317 317 317 317 318 317 316 315 311 308 308 307 306 306
325 323 324 322 317 315 315 316 316 315 312 309 307 305 306 307 306 305 305 306 306 305 305 307 309 310 310 311 311 311 310 310 309 311 315 316 317 317 318 319 319 318 318 317 317 316 316 316 316 315 315 316 316 318 318 318 317 314 310 309 307 306 306
324 324 324 320 316 315 316 317 318 317 315 311 307 305 305 305 305 305 305 305 305 305 304 305 306 308 309 309 309 308 307 307 307 309 313 316 316 316 316 317 318 318 317 317 316 316 316 315 314 313 313 314 314 315 316 317 318 317 314 310 308 307 307
324 325 324 318 315 316 317 318 319 319 318 313 307 305 305 305 305 305 304 305 305 305 305 304 305 307 308 308 308 307 307 307 307 308 311 314 315 315 315 316 316 317 316 316 316 315 314 313 313 313 313 313 313 314 314 315 317 318 317 314 310 308 307
325 326 322 317 315 316 318 320 320 320 320 317 310 305 305 305 305 304 304 304 305 305 304 304 305 306 307 308 308 308 309 309 309 309 309 310 312 313 313 314 315 315 315 315 314 313 313 313 313 313 313 313 313 313 313 314 314 317 319 317 313 309 308
325 325 321 317 316 317 319 321 321 321 320 319 314 308 305 305 305 304 304 304 304 305 304 304 306 307 308 309 309 309 309 309 310 309 309 309 309 309 310 311 312 312 313 313 313 313 312 312 312 313 314 314 313 313 313 313 314 316 318 318 316 312 309
326 325 320 317 318 318 319 322 322 321 320 320 316 310 306 305 304 304 304 304 304 304 304 305 306 308 309 309 309 310 309 309 310 310 310 310 310 310 310 310 311 311 312 313 313 313 313 313 313 313 314 314 314 314 313 314 313 314 316 318 318 315 311
325 324 319 317 319 318 318 322 322 321 320 319 316 312 308 305 304 304 304 304 305 305 305 306 307 309 309 309 310 310 309 310 310 310 311 312 312 313 314 313 313 313 314 314 314 314 315 315 315 314 314 314 314 314 314 314 314 313 314 315 316 315 312
323 322 318 318 320 317 316 321 322 320 319 318 316 313 309 306 305 305 305 305 305 305 306 307 309 309 310 310 310 310 310 310 310 310 311 312 313 314 315 315 315 316 316 316 316 316 316 315 315 315 315 315 315 315 315 315 315 314 314 313 313 313 311
321 321 320 320 320 316 317 321 322 320 320 319 316 313 310 308 306 305 305 305 305 306 307 309 310 310 310 310 310 310 310 310 309 311 313 314 314 314 314 316 317 317 317 317 317 317 317 317 316 316 316 315 315 315 315 315 315 315 315 314 314 313 312
321 321 321 321 319 316 316 319 320 319 318 317 314 313 313 312 310 308 307 307 307 307 309 310 310 310 310 310 311 311 312 312 312 314 316 317 316 316 316 317 317 317 318 318 318 318 318 318 317 317 317 317 316 315 315 315 315 315 315 315 315 315 314
321 321 321 320 319 317 316 317 318 317 315 314 313 313 313 313 312 312 312 311 311 311 312 312 312 312 312 313 314 314 315 316 316 317 317 317 317 317 317 318 318 318 318 318 319 319 319 318 318 318 318 318 318 317 317 316 315 315 315 315 316 315 315
321 321 321 320 319 317 316 315 316 315 315 314 314 313 311 310 312 315 315 315 315 315 315 315 315 315 315 315 316 316 316 317 317 317 317 317 317 318 318 318 318 319 319 319 319 319 319 319 319 318 318 318 319 319 318 318 317 316 315 315 316 316 316
321 321 320 319 317 315 314 313 314 315 315 314 314 314 313 314 315 317 317 317 317 317 316 316 316 316 316 316 316 316 316 316 316 317 317 317 317 317 318 318 318 318 319 319 319 320 319 319 319 319 319 319 319 320 319 318 317 317 316 316 316 316 316
319 319 318 317 316 316 315 314 314 315 315 315 316 316 316 316 318 319 318 318 317 317 318 317 316 316 316 316 316 316 316 316 316 317 317 317 317 317 318 318 318 318 318 319 319 319 319 319 318 318 319 319 319 319 319 318 317 317 317 317 316 316 316
318 317 317 316 317 318 318 317 317 317 316 317 318 318 317 318 319 320 320 319 318 318 318 318 317 317 316 316 317 317 317 317 317 317 317 317 317 317 318 318 318 318 318 318 318 318 318 318 318 318 318 318 318 318 318 318 317 317 317 317 317 317 316
319 318 317 318 318 319 319 319 318 317 318 318 317 316 318 320 320 320 320 320 320 319 319 319 318 318 318 318 318 318 319 319 318 319 319 319 319 319 319 319 319 319 319 319 318 318 318 318 318 318 318 318 318 318 318 317 317 317 317 317 317 317 316
318 318 317 318 318 318 318 318 317 316 317 318 317 315 317 319 319 319 319 319 319 318 318 318 319 319 319 319 318 318 318 318 318 318 318 318 318 318 318 318 317 317 317 317 317 317 317 317 316 316 317 317 317 316 316 316 316 317 317 317 316 316 316
316 316 317 317 316 316 316 316 315 315 316 316 316 315 316 316 316 316 316 316 316 316 316 316 316 317 317 317 317 316 316 316 315 315 315 315 314 314 314 314 313 313 313 313 313 313 312 313 312 312 313 314 314 313 313 313 315 316 316 316 316 315 315
311 312 313 313 313 313 313 312 313 314 314 314 315 314 314 314 314 314 314 313 313 314 313 313 313 314 314 314 314 314 314 313 313 313 313 313 312 312 312 312 312 312 312 311 311 310 310 310 310 310 310 311 311 311 311 311 313 314 315 315 315 314 314
305 307 308 309 309 310 310 309 310 311 312 312 312 311 311 311 311 310 310 310 309 309 309 309 310 311 311 312 312 311 311 311 311 312 312 312 312 312 312 312 312 312 312 312 311 311 310 309 309 309 309 309 309 310 310 311 312 314 314 314 314 313 314
303 303 304 305 305 306 307 307 308 308 309 310 310 309 309 309 309 308 308 308 308 308 309 309 309 309 309 310 310 310 310 309 309 309 309 309 309 309 309 310 311 311 311 311 311 311 311 311 310 309 309 309 309 309 309 311 312 313 314 314 314 314 314
300 301 301 301 301 302 302 303 303 304 304 305 306 306 307 307 308 308 307 307 307 307 308 308 309 309 309 309 309 309 309 308 308 307 306 305 305 305 305 305 306 308 309 310 311 310 310 311 311 311 310 310 310 310 309 310 312 314 314 314 314 314 314
298 298 299 299 299 299 299 299 299 300 300 300 300 301 301 302 303 303 303 302 302 302 302 303 303 304 305 305 306 306 306 305 304 303 302 302 302 302 302 302 302 304 305 307 309 310 311 311 311 311 311 311 311 311 311 311 312 314 314 314 313 314 313

ECMWFFLT1_850_thetae_060.txt.gz
Theta_e
331 331 331 330 329 328 327 328 325 321 321 322 321 320 320 322 324 325 325 326 327 326 325 325 325 326 330 331 330 330 330 329 329 329 330 329 329 329 327 327 327 328 329 328 328 328 328 328 326 326 327 326 326 325 325 325 325 324 324 323 323 323 324
333 331 330 328 326 327 327 325 325 323 322 322 321 320 320 321 322 322 323 325 325 325 326 326 325 325 328 329 329 330 330 329 328 329 330 329 328 329 327 327 328 329 329 329 329 328 328 328 327 326 326 326 325 324 324 324 323 323 322 322 323 323 324
332 330 327 322 319 324 326 324 325 325 323 322 322 321 320 320 319 319 320 322 323 325 326 327 326 324 325 327 328 328 328 329 329 328 329 329 328 329 328 327 328 328 328 328 329 329 328 328 327 327 326 326 325 323 323 323 322 322 322 322 323 323 323
330 327 322 315 314 323 326 325 325 324 323 322 321 319 318 318 319 319 320 321 323 325 325 326 326 324 324 324 325 326 327 329 329 328 328 328 328 328 328 328 328 328 328 328 328 328 328 327 327 327 326 325 324 323 323 322 322 322 322 322 322 322 321
328 324 319 316 319 325 326 325 325 324 323 321 319 317 316 317 319 320 320 321 322 324 325 326 326 324 324 324 323 326 329 329 329 329 329 328 328 328 328 328 328 328 328 328 327 328 328 327 327 327 325 325 324 323 322 321 321 320 320 321 320 320 320
327 323 320 320 323 326 326 326 326 325 324 321 319 318 316 318 320 320 320 320 320 322 324 325 324 323 323 323 323 324 327 328 327 327 328 329 327 329 329 329 329 328 328 328 327 327 327 327 327 326 324 324 323 322 321 320 319 319 319 319 318 317 317
326 323 322 322 323 327 327 326 326 325 323 322 320 319 318 319 320 319 320 320 319 319 321 322 321 319 320 322 323 323 323 325 325 325 327 328 328 329 329 328 329 328 328 328 328 327 327 327 326 325 325 324 322 321 320 319 318 318 317 316 316 315 314
327 324 325 322 320 326 327 325 325 325 323 323 323 320 318 319 321 320 320 319 318 318 319 320 319 318 319 320 323 323 322 322 322 324 326 327 328 329 329 329 329 328 328 328 328 327 326 326 326 325 324 323 321 320 319 319 318 318 317 315 314 314 314
327 324 325 321 317 323 326 324 324 324 324 325 324 320 318 320 320 321 320 318 315 316 319 319 319 319 319 319 321 321 321 322 322 323 324 325 326 327 328 329 329 328 328 328 328 327 327 326 325 324 323 321 321 320 320 319 318 317 316 315 314 313 314
327 324 323 320 316 322 325 325 324 324 325 324 320 316 318 319 319 321 320 315 311 312 317 319 318 317 317 319 320 320 321 322 322 323 323 323 324 325 326 327 328 328 327 327 328 327 326 325 324 323 321 320 319 319 319 319 318 317 316 315 314 312 312
327 323 321 319 317 321 324 324 323 323 322 320 316 313 316 317 318 320 318 312 307 309 314 317 317 317 318 319 320 321 321 321 321 322 322 323 323 324 324 325 328 328 326 326 326 323 323 324 322 321 320 318 318 317 317 317 317 317 316 314 313 311 310
328 324 321 320 318 320 324 323 321 321 320 319 317 315 316 316 318 320 317 311 307 308 313 317 317 318 320 321 321 321 321 320 320 321 322 323 323 323 323 323 326 326 323 323 322 319 321 323 321 320 319 319 318 317 317 316 316 316 315 314 312 310 309
328 326 321 320 318 320 324 323 320 320 320 320 320 319 318 318 319 320 317 311 307 308 313 317 318 319 320 320 320 320 320 320 320 320 321 321 321 322 322 322 324 324 322 322 321 319 321 322 320 319 319 319 319 318 317 316 316 316 315 314 312 309 308
328 326 322 320 319 320 323 323 320 318 319 320 320 321 321 320 320 321 318 313 309 309 313 316 318 318 319 320 319 318 319 319 319 319 320 321 320 321 322 322 321 320 321 323 322 320 321 320 319 319 319 319 319 319 318 316 316 317 315 313 312 309 308
328 326 322 321 321 321 322 322 318 316 316 317 319 321 322 320 320 320 319 317 313 311 314 317 318 319 319 318 317 317 317 318 319 319 319 320 320 321 321 321 320 318 320 322 321 320 320 319 319 319 319 319 319 319 319 318 317 318 315 313 312 310 308
328 326 322 322 322 321 321 320 317 315 313 312 316 320 319 317 318 319 318 317 313 311 315 316 316 318 318 316 316 315 315 316 318 319 318 319 320 319 319 319 318 317 317 319 319 320 320 319 319 319 319 319 319 319 319 318 318 318 317 315 313 312 310
327 324 322 322 321 320 320 319 320 320 314 309 313 317 316 315 318 318 317 316 312 310 312 313 315 317 316 316 315 313 312 314 317 318 318 318 319 318 318 317 316 315 315 316 318 319 319 319 319 318 318 319 319 319 319 318 318 318 318 317 315 313 312
326 323 323 322 320 320 321 320 321 322 318 311 309 311 313 316 318 317 315 315 313 311 310 310 312 314 312 313 314 312 312 314 316 317 317 317 318 318 318 317 316 316 316 316 318 318 318 318 318 318 318 318 318 319 318 317 319 319 319 318 317 314 313
325 323 323 322 319 320 322 321 321 322 320 314 307 307 311 315 317 316 315 316 315 312 311 310 311 311 310 311 312 312 312 312 313 314 314 315 316 316 317 316 316 316 317 317 317 317 316 316 316 317 317 317 317 317 317 316 318 319 319 319 318 316 315
323 323 323 320 318 321 322 322 322 322 321 317 310 308 312 314 316 317 316 315 316 314 311 310 311 311 312 312 312 312 311 311 312 312 313 314 313 313 315 315 314 315 317 318 317 316 315 315 315 316 316 316 316 317 317 317 318 318 318 318 318 317 316
322 323 322 319 318 321 323 322 322 321 320 318 315 314 314 314 316 318 317 316 316 313 310 310 311 313 314 313 313 312 312 312 313 311 312 313 312 313 316 315 315 316 317 317 317 317 317 317 317 317 317 316 316 317 317 318 317 317 318 318 317 318 317
322 321 322 320 319 321 322 322 322 321 319 317 317 318 318 316 315 316 317 317 316 313 313 313 312 314 316 315 314 314 314 314 315 314 313 314 312 313 316 317 317 317 317 316 316 316 316 317 317 318 317 316 316 317 317 317 317 317 317 317 317 317 317
322 320 321 322 320 320 322 323 322 321 319 316 315 316 317 316 316 317 317 317 316 314 314 313 310 311 313 314 315 316 315 313 315 315 316 316 315 314 315 316 316 316 316 316 316 316 317 316 316 317 317 317 317 317 317 317 317 317 317 317 317 317 317
323 321 321 322 322 320 321 322 322 320 319 316 314 314 313 313 315 317 317 318 317 314 311 309 308 309 310 310 313 314 315 315 314 314 316 317 317 316 316 316 317 317 317 317 317 318 318 317 317 317 317 317 317 317 317 317 318 318 317 317 317 317 317
322 321 320 321 322 321 320 322 322 320 319 317 315 314 314 313 313 314 315 315 314 311 308 308 309 310 309 310 310 310 313 316 314 314 317 318 318 319 318 318 318 317 317 318 318 318 318 318 318 318 318 318 317 317 317 317 317 317 317 317 318 317 317
320 321 321 320 320 318 318 319 320 319 319 317 314 313 314 314 315 316 314 312 311 310 309 309 309 309 310 310 310 310 312 315 315 316 318 319 319 320 320 320 321 319 318 318 318 319 319 319 319 319 318 318 318 318 318 318 318 317 317 317 318 318 318
320 320 320 320 319 318 318 318 317 318 318 317 314 313 312 312 314 316 315 314 314 313 312 312 311 311 311 311 312 313 315 315 316 317 318 319 319 320 319 320 321 321 321 320 319 319 320 320 320 319 319 319 318 318 318 318 318 318 318 318 317 318 318
320 320 321 321 320 318 317 317 316 317 317 316 314 314 313 311 312 313 312 310 310 310 312 315 315 314 315 315 315 316 316 317 317 317 317 317 317 318 318 318 318 319 320 320 319 319 319 319 320 319 319 319 318 319 319 319 318 319 319 318 318 318 317
320 320 319 319 318 316 315 314 314 315 315 315 316 316 315 314 314 313 311 310 310 312 314 317 317 317 317 317 317 317 316 316 317 317 317 317 316 317 317 317 317 317 318 318 318 318 318 318 319 319 319 319 319 320 319 318 318 318 318 318 318 318 317
318 318 318 318 317 317 316 315 315 315 315 317 318 318 317 317 315 314 314 315 317 318 318 318 318 318 318 317 317 317 317 317 317 317 318 318 318 318 318 317 318 318 318 319 318 318 318 318 319 319 319 320 321 321 320 319 318 317 317 318 317 317 317
318 318 318 318 318 318 318 318 317 317 318 318 318 319 318 318 317 317 318 319 319 319 319 319 319 319 318 318 318 318 317 318 318 319 319 319 319 319 318 318 318 318 318 318 317 317 317 317 318 318 318 319 319 318 318 318 317 315 315 314 314 315 314
317 317 317 317 317 317 317 317 316 316 317 317 317 317 317 317 318 318 318 318 318 318 318 318 318 318 319 318 319 318 318 317 317 317 317 317 316 316 316 316 315 315 315 314 313 313 314 313 314 314 314 315 315 314 314 315 316 315 313 312 312 312 312
315 315 315 315 315 315 315 315 315 315 315 316 316 316 316 316 316 317 316 317 317 317 316 317 316 317 317 317 317 317 316 315 315 315 315 314 313 313 313 314 314 313 312 312 312 312 311 311 311 311 311 311 311 311 311 313 314 314 313 313 313 311 310
312 312 312 312 312 312 312 312 313 313 314 315 315 314 313 313 314 314 314 314 313 313 313 314 314 314 314 314 315 315 314 313 312 312 312 311 310 310 310 311 312 312 311 311 311 311 311 311 311 311 311 311 310 311 310 311 312 313 312 313 314 312 310
306 307 308 308 308 308 308 309 310 310 311 311 311 311 311 311 311 311 311 311 310 310 311 312 312 312 312 312 313 313 312 311 310 310 310 309 309 307 307 308 309 310 309 309 309 309 310 311 312 312 312 312 312 312 311 311 312 312 312 313 314 312 310
301 301 302 302 302 302 303 303 304 305 306 306 305 306 306 307 307 307 307 308 307 307 308 308 308 308 309 309 309 309 309 309 309 309 309 309 308 308 307 307 308 308 307 306 306 306 306 308 310 311 312 312 313 313 313 312 312 313 313 313 313 312 311
299 299 299 299 299 299 299 300 300 300 300 300 300 300 300 301 301 301 301 301 301 301 301 301 302 302 302 303 303 303 303 303 304 304 304 304 304 304 304 304 304 304 303 303 302 302 302 303 304 305 307 309 310 311 312 313 313 313 313 313 313 312 311